M I D A S
Marine Information and Data Acquisition System
Tripno 2207 of the Zeeleeuw from 2011-10-27 06:42:40 to 2011-10-27 15:51:38
Back to CruiseResearch ActivitiesStationsMapUnderway DataData graphs

EquipmentUnitsComment
TimeDGPSUTC
LatitudeDGPSDM.mWGS84
LongitudeDGPSDM.mWGS84
TemperatureSBE03/SBE38deg celciusITS90
ConductivitySBE21S/mITS90
SalinitySBE21 Practical Salinity Units
ChlorophylAChelsea fluorimeterg/lCalibrated in Aceton
Missing or incorrect values are displayed as -999
Sea surface data collected by the RV Zeeleeuw from 2011-10-27 06:36:40 to 2011-10-27 16:01:03
                                                                                    Next 1000 lines
Time Latitude Longitude Temperature Conductivity Salinity ChlorophylA
2011-10-27 06:36:50 51°13.637 2°56.019 19.2997 0.003129 0.022113 -3.020363
2011-10-27 06:36:55 51°13.637 2°56.019 19.3004 0.003129 0.022113 -3.020363
2011-10-27 06:37:00 51°13.636 2°56.019 19.3049 0.003129 0.022113 -3.020363
2011-10-27 06:37:05 51°13.636 2°56.019 19.3097 0.003129 0.022113 -3.020363
2011-10-27 06:37:10 51°13.636 2°56.019 19.3136 0.003129 0.022113 -3.020363
2011-10-27 06:37:15 51°13.636 2°56.019 19.3092 0.003129 0.022113 -3.020363
2011-10-27 06:37:20 51°13.636 2°56.019 19.3036 0.003335 0.02302 -3.020363
2011-10-27 06:37:25 51°13.636 2°56.018 19.2975 0.003129 0.022113 -3.020363
2011-10-27 06:37:30 51°13.636 2°56.018 19.3023 0.003129 0.022113 -3.020363
2011-10-27 06:37:35 51°13.636 2°56.019 19.2986 0.003129 0.022113 -3.020363
2011-10-27 06:37:40 51°13.636 2°56.019 19.3006 0.003129 0.022113 -3.020363
2011-10-27 06:37:45 51°13.636 2°56.019 19.2968 0.003026 0.021661 -3.020363
2011-10-27 06:37:50 51°13.636 2°56.019 19.3004 0.003129 0.022113 -3.020363
2011-10-27 06:37:55 51°13.636 2°56.018 19.3032 0.003129 0.022113 -3.020363
2011-10-27 06:38:00 51°13.635 2°56.018 19.3033 0.003129 0.022113 -3.020363
2011-10-27 06:38:05 51°13.635 2°56.018 19.3018 0.003129 0.022113 -3.020363
2011-10-27 06:38:10 51°13.635 2°56.018 19.285 0.003129 0.022113 -3.020363
2011-10-27 06:38:15 51°13.635 2°56.018 19.2888 0.003129 0.022113 -3.020363
2011-10-27 06:38:20 51°13.635 2°56.018 19.2883 0.003129 0.022113 -3.020363
2011-10-27 06:38:25 51°13.636 2°56.017 19.2974 0.003129 0.022113 -3.020363
2011-10-27 06:38:30 51°13.636 2°56.016 19.291 0.003129 0.022113 -3.020363
2011-10-27 06:38:35 51°13.636 2°56.014 19.2959 0.003129 0.022113 -3.020363
2011-10-27 06:38:40 51°13.636 2°56.012 19.3033 0.003129 0.022113 -3.020363
2011-10-27 06:38:45 51°13.637 2°56.008 19.3081 0.003129 0.022113 -3.020363
2011-10-27 06:38:50 51°13.638 2°56.005 19.3122 0.003129 0.022113 -3.020363
2011-10-27 06:38:56 51°13.638 2°56.001 19.3101 0.003129 0.022113 -3.020363
2011-10-27 06:39:01 51°13.64 2°55.997 19.3097 0.003129 0.022113 -3.020363
2011-10-27 06:39:08 51°13.641 2°55.99 19.3051 0.003129 0.022113 -3.020363
2011-10-27 06:39:13 51°13.643 2°55.985 19.304 0.003129 0.022113 -3.020363
2011-10-27 06:39:19 51°13.644 2°55.979 19.3036 0.003129 0.022113 -3.020363
2011-10-27 06:39:23 51°13.646 2°55.975 19.3031 0.003129 0.022113 -3.020363
2011-10-27 06:39:28 51°13.647 2°55.969 19.3062 0.003129 0.022113 -3.020363
2011-10-27 06:39:33 51°13.649 2°55.963 19.295 0.003129 0.022113 -3.020363
2011-10-27 06:39:39 51°13.651 2°55.955 19.3022 0.003129 0.022113 -3.020363
2011-10-27 06:39:44 51°13.652 2°55.949 19.2899 0.003129 0.022113 -3.020363
2011-10-27 06:39:49 51°13.654 2°55.943 19.2949 0.003129 0.022113 -3.020363
2011-10-27 06:39:53 51°13.655 2°55.937 19.2988 0.003129 0.022113 -3.020363
2011-10-27 06:39:59 51°13.657 2°55.929 19.2992 0.003129 0.022113 -3.020363
2011-10-27 06:40:04 51°13.658 2°55.923 19.296 0.003129 0.022113 -3.020363
2011-10-27 06:40:09 51°13.66 2°55.916 19.2995 0.003129 0.022113 -3.020363
2011-10-27 06:40:13 51°13.661 2°55.911 19.307 0.003129 0.022113 -3.020363
2011-10-27 06:40:19 51°13.663 2°55.902 19.3098 0.003129 0.022113 -3.020363
2011-10-27 06:40:24 51°13.665 2°55.895 19.3056 0.003129 0.022113 -3.020363
2011-10-27 06:40:29 51°13.666 2°55.888 19.3119 0.003129 0.022113 -3.020363
2011-10-27 06:40:33 51°13.667 2°55.882 19.3117 0.003129 0.022113 -3.020363
2011-10-27 06:40:38 51°13.669 2°55.875 19.3067 0.003129 0.022113 -3.020363
2011-10-27 06:40:44 51°13.671 2°55.866 19.3108 0.003129 0.022113 -3.020363
2011-10-27 06:40:49 51°13.673 2°55.859 19.3117 0.003129 0.022113 -3.020363
2011-10-27 06:40:53 51°13.675 2°55.853 19.3113 0.003129 0.022113 -3.020363
2011-10-27 06:40:58 51°13.677 2°55.846 19.311 0.003129 0.022113 -3.020363
2011-10-27 06:41:03 51°13.679 2°55.838 19.3115 0.003129 0.022113 -3.020363
2011-10-27 06:41:09 51°13.681 2°55.829 19.3121 0.003129 0.022113 -3.020363
2011-10-27 06:41:13 51°13.682 2°55.823 19.312 0.003129 0.022113 -3.020363
2011-10-27 06:41:18 51°13.684 2°55.815 19.3118 0.003129 0.022113 -3.020363
2011-10-27 06:41:23 51°13.686 2°55.808 19.3114 0.003129 0.022113 -3.020363
2011-10-27 06:41:29 51°13.687 2°55.798 19.3113 0.003129 0.022113 -3.020363
2011-10-27 06:41:33 51°13.689 2°55.792 19.3097 0.003129 0.022113 -3.020363
2011-10-27 06:41:39 51°13.69 2°55.782 19.3088 0.003129 0.022113 -3.020363
2011-10-27 06:41:43 51°13.691 2°55.776 19.3086 0.003129 0.022113 -3.020363
2011-10-27 06:41:48 51°13.692 2°55.768 19.3098 0.003129 0.022113 -3.020363
2011-10-27 06:41:53 51°13.693 2°55.761 19.3123 0.003129 0.022113 -3.020363
2011-10-27 06:41:59 51°13.694 2°55.752 19.3134 0.003129 0.022113 -3.020363
2011-10-27 06:42:04 51°13.694 2°55.746 19.314 0.003129 0.022113 -3.020363
2011-10-27 06:42:09 51°13.695 2°55.74 19.3085 0.003129 0.022113 -3.020363
2011-10-27 06:42:13 51°13.695 2°55.737 19.317 0.003129 0.022113 -3.020363
2011-10-27 06:42:19 51°13.696 2°55.734 19.3224 0.003129 0.022113 -3.020363
2011-10-27 06:42:24 51°13.696 2°55.734 19.3309 0.003129 0.022113 -3.020363
2011-10-27 06:42:29 51°13.697 2°55.734 19.3301 0.003129 0.022113 -3.020363
2011-10-27 06:42:33 51°13.698 2°55.736 19.331 0.003129 0.022113 -3.020363
2011-10-27 06:42:38 51°13.699 2°55.739 19.3364 0.003129 0.022113 -3.020363
2011-10-27 06:42:43 51°13.701 2°55.742 19.3405 0.003129 0.022113 -3.020363
2011-10-27 06:42:49 51°13.705 2°55.746 19.3418 0.003129 0.022113 -3.020363
2011-10-27 06:42:53 51°13.708 2°55.748 19.3148 0.003129 0.022113 -3.020363
2011-10-27 06:42:58 51°13.711 2°55.751 19.3063 0.003129 0.022113 -3.020363
2011-10-27 06:43:03 51°13.714 2°55.752 19.2895 0.003129 0.022113 -3.020363
2011-10-27 06:43:08 51°13.716 2°55.754 19.266 0.003129 0.022113 -3.020363
2011-10-27 06:43:13 51°13.717 2°55.754 19.2717 0.003129 0.022113 -3.020363
2011-10-27 06:43:17 51°13.718 2°55.754 19.2779 0.003129 0.022113 -3.020363
2011-10-27 06:43:22 51°13.719 2°55.754 19.2509 0.003129 0.022113 -3.020363
2011-10-27 06:43:28 51°13.718 2°55.754 19.2796 0.003129 0.022113 -3.020363
2011-10-27 06:43:33 51°13.717 2°55.754 19.2811 0.003129 0.022113 -3.020363
2011-10-27 06:43:37 51°13.716 2°55.753 19.2988 0.003129 0.022113 -3.020363
2011-10-27 06:43:42 51°13.715 2°55.753 19.3022 0.003129 0.022113 -3.020363
2011-10-27 06:43:48 51°13.714 2°55.752 19.3037 0.003129 0.022113 -3.020363
2011-10-27 06:43:53 51°13.714 2°55.752 19.2973 0.003129 0.022113 -3.020363
2011-10-27 06:43:59 51°13.715 2°55.751 19.2984 0.003129 0.022113 -3.020363
2011-10-27 06:44:04 51°13.716 2°55.751 19.2974 0.003129 0.022113 -3.020363
2011-10-27 06:44:08 51°13.717 2°55.75 19.2977 0.003129 0.022113 -3.020363
2011-10-27 06:44:13 51°13.719 2°55.749 19.2944 0.003129 0.022113 -3.020363
2011-10-27 06:44:19 51°13.722 2°55.746 19.2935 0.003129 0.022113 -3.020363
2011-10-27 06:44:24 51°13.725 2°55.744 19.2972 0.003129 0.022113 -3.020363
2011-10-27 06:44:28 51°13.728 2°55.741 19.2978 0.003129 0.022113 -3.020363
2011-10-27 06:44:33 51°13.731 2°55.737 19.2988 0.003129 0.022113 -3.020363
2011-10-27 06:44:39 51°13.735 2°55.732 19.2976 0.003129 0.022113 -3.020363
2011-10-27 06:44:43 51°13.739 2°55.728 19.28 0.003129 0.022113 -3.020363
2011-10-27 06:44:49 51°13.743 2°55.722 19.2794 0.003129 0.022113 -3.020363
2011-10-27 06:44:53 51°13.747 2°55.718 19.2826 0.003129 0.022113 -3.020363
2011-10-27 06:44:58 51°13.751 2°55.713 19.2636 0.003129 0.022113 -3.020363
2011-10-27 06:45:04 51°13.756 2°55.707 19.2695 0.003129 0.022113 -3.020363
2011-10-27 06:45:09 51°13.761 2°55.701 19.2628 0.003129 0.022113 -3.020363
2011-10-27 06:45:13 51°13.765 2°55.696 19.2575 0.003129 0.022113 -3.020363
2011-10-27 06:45:18 51°13.771 2°55.691 19.2566 0.003129 0.022113 -3.020363
2011-10-27 06:45:23 51°13.776 2°55.685 19.2548 0.003129 0.022113 -3.020363
2011-10-27 06:45:28 51°13.782 2°55.679 19.2561 0.003129 0.022113 -3.020363
2011-10-27 06:45:33 51°13.788 2°55.673 19.2516 0.003129 0.022113 -3.020363
2011-10-27 06:45:37 51°13.793 2°55.669 19.2546 0.003129 0.022113 -3.020363
2011-10-27 06:45:42 51°13.8 2°55.663 19.2514 0.003129 0.022113 -3.020363
2011-10-27 06:45:48 51°13.808 2°55.656 19.2535 0.003129 0.022113 -3.020363
2011-10-27 06:45:53 51°13.815 2°55.651 19.2442 0.003129 0.022113 -3.020363
2011-10-27 06:45:58 51°13.822 2°55.645 19.2397 0.003129 0.022113 -3.020363
2011-10-27 06:46:03 51°13.83 2°55.64 19.2278 0.003129 0.022113 -3.020363
2011-10-27 06:46:08 51°13.837 2°55.634 19.2385 0.003129 0.022113 -3.020363
2011-10-27 06:46:13 51°13.845 2°55.629 19.2421 0.003129 0.022113 -3.020363
2011-10-27 06:46:18 51°13.853 2°55.623 19.2574 0.003129 0.022113 -3.020363
2011-10-27 06:46:23 51°13.86 2°55.617 19.2442 0.003129 0.022113 -3.020363
2011-10-27 06:46:28 51°13.868 2°55.612 19.2586 0.003129 0.022113 -3.020363
2011-10-27 06:46:33 51°13.876 2°55.606 19.2415 0.003129 0.022113 -3.020363
2011-10-27 06:46:37 51°13.882 2°55.602 19.2357 0.003129 0.022113 -3.020363
2011-10-27 06:46:42 51°13.891 2°55.596 19.2321 0.003129 0.022113 -3.020363
2011-10-27 06:46:47 51°13.899 2°55.59 19.246 0.003129 0.022113 -3.020363
2011-10-27 06:46:52 51°13.907 2°55.584 19.234 0.003129 0.022113 -3.020363
2011-10-27 06:46:57 51°13.916 2°55.578 19.2511 0.003129 0.022113 -3.020363
2011-10-27 06:47:01 51°13.923 2°55.574 19.2647 0.003129 0.022113 -3.020363
2011-10-27 06:47:06 51°13.932 2°55.568 19.2328 0.003129 0.022113 -3.020363
2011-10-27 06:47:11 51°13.941 2°55.561 19.2256 0.003129 0.022113 -3.020363
2011-10-27 06:47:16 51°13.95 2°55.555 19.2139 0.003129 0.022113 -3.020363
2011-10-27 06:47:21 51°13.96 2°55.548 19.2116 0.003129 0.022113 -3.020363
2011-10-27 06:47:25 51°13.968 2°55.543 19.213 0.003129 0.022113 -3.020363
2011-10-27 06:47:30 51°13.978 2°55.536 19.2194 0.003129 0.022113 -3.020363
2011-10-27 06:47:35 51°13.988 2°55.529 19.2121 0.003129 0.022113 -3.020363
2011-10-27 06:47:40 51°13.998 2°55.521 19.2165 0.003129 0.022113 -3.020363
2011-10-27 06:47:45 51°14.009 2°55.514 19.2085 0.003129 0.022113 -3.020363
2011-10-27 06:47:50 51°14.019 2°55.506 19.2055 0.003129 0.022113 -3.020363
2011-10-27 06:47:55 51°14.03 2°55.499 19.2106 0.003129 0.022113 -3.020363
2011-10-27 06:48:00 51°14.04 2°55.491 19.2214 0.003129 0.022113 -3.020363
2011-10-27 06:48:05 51°14.051 2°55.483 19.2307 0.003129 0.022113 -3.020363
2011-10-27 06:48:10 51°14.062 2°55.475 19.2257 0.003129 0.022113 -3.020363
2011-10-27 06:48:15 51°14.073 2°55.467 19.2461 0.003129 0.022113 -3.020363
2011-10-27 06:48:20 51°14.083 2°55.46 19.2199 0.003129 0.022113 -3.020363
2011-10-27 06:48:25 51°14.094 2°55.451 19.2169 0.003129 0.022113 -3.020363
2011-10-27 06:48:30 51°14.104 2°55.443 19.2254 0.003129 0.022113 -3.020363
2011-10-27 06:48:35 51°14.115 2°55.435 19.2159 0.003129 0.022113 -3.020363
2011-10-27 06:48:40 51°14.126 2°55.426 19.234 0.003129 0.022113 -3.020363
2011-10-27 06:48:45 51°14.136 2°55.418 19.2259 0.003129 0.022113 -3.020363
2011-10-27 06:48:50 51°14.147 2°55.409 19.2325 0.003129 0.022113 -3.020363
2011-10-27 06:48:55 51°14.157 2°55.4 19.2347 0.003129 0.022113 -3.020363
2011-10-27 06:49:00 51°14.167 2°55.391 19.2269 0.003129 0.022113 -3.020363
2011-10-27 06:49:05 51°14.178 2°55.382 19.2367 0.003129 0.022113 -3.020363
2011-10-27 06:49:10 51°14.188 2°55.373 19.2235 0.003129 0.022113 -3.020363
2011-10-27 06:49:15 51°14.198 2°55.363 19.2282 0.003129 0.022113 -3.020363
2011-10-27 06:49:20 51°14.208 2°55.354 19.2405 0.003129 0.022113 -3.020363
2011-10-27 06:49:25 51°14.219 2°55.345 19.2508 0.003129 0.022113 -3.020363
2011-10-27 06:49:29 51°14.227 2°55.338 19.2565 0.003129 0.022113 -3.020363
2011-10-27 06:49:35 51°14.239 2°55.326 19.2544 0.003129 0.022113 -3.020363
2011-10-27 06:49:40 51°14.25 2°55.317 19.2577 0.003129 0.022113 -3.020363
2011-10-27 06:49:45 51°14.262 2°55.306 19.2456 0.003129 0.022113 -3.020363
2011-10-27 06:49:50 51°14.273 2°55.295 19.2416 0.003129 0.022113 -3.020363
2011-10-27 06:49:56 51°14.287 2°55.283 19.2506 0.003129 0.022113 -3.020363
2011-10-27 06:50:01 51°14.299 2°55.271 19.2378 0.003129 0.022113 -3.020363
2011-10-27 06:50:06 51°14.311 2°55.26 19.2223 0.003129 0.022113 -3.020363
2011-10-27 06:50:11 51°14.324 2°55.248 19.2319 0.003129 0.022113 -3.020363
2011-10-27 06:50:15 51°14.334 2°55.239 19.2574 0.003129 0.022113 -3.020363
2011-10-27 06:50:20 51°14.346 2°55.227 19.2537 0.003129 0.022113 -3.020363
2011-10-27 06:50:25 51°14.359 2°55.215 19.2337 0.003129 0.022113 -3.020363
2011-10-27 06:50:30 51°14.371 2°55.202 19.2346 0.003129 0.022113 -3.020363
2011-10-27 06:50:35 51°14.384 2°55.19 19.2465 0.003129 0.022113 -3.020363
2011-10-27 06:50:40 51°14.397 2°55.178 19.2198 0.003129 0.022113 -3.020363
2011-10-27 06:50:45 51°14.409 2°55.165 19.2489 0.003129 0.022113 -3.020363
2011-10-27 06:50:50 51°14.422 2°55.152 19.2487 0.003129 0.022113 -3.020363
2011-10-27 06:50:55 51°14.434 2°55.139 19.2368 0.003129 0.022113 -3.020363
2011-10-27 06:51:00 51°14.447 2°55.127 19.2383 0.003129 0.022113 -3.020363
2011-10-27 06:51:05 51°14.46 2°55.113 19.2483 0.003129 0.022113 -3.020363
2011-10-27 06:51:10 51°14.472 2°55.1 19.2513 0.003129 0.022113 -3.020363
2011-10-27 06:51:15 51°14.484 2°55.086 19.2249 0.003129 0.022113 -3.020363
2011-10-27 06:51:20 51°14.497 2°55.072 19.2475 0.003129 0.022113 -3.020363
2011-10-27 06:51:25 51°14.509 2°55.058 19.2437 0.003129 0.022113 -3.020363
2011-10-27 06:51:30 51°14.522 2°55.044 19.2655 0.003129 0.022113 -3.020363
2011-10-27 06:51:35 51°14.534 2°55.028 19.2525 0.003129 0.022113 -3.020363
2011-10-27 06:51:40 51°14.546 2°55.012 19.2316 0.003129 0.022113 -3.020363
2011-10-27 06:51:45 51°14.557 2°54.996 19.2059 0.003129 0.022113 -3.020363
2011-10-27 06:51:50 51°14.569 2°54.98 19.2328 0.003129 0.022113 -3.020363
2011-10-27 06:51:55 51°14.581 2°54.964 19.2181 0.003129 0.022113 -3.020363
2011-10-27 06:52:00 51°14.593 2°54.948 19.2176 0.003129 0.022113 -3.020363
2011-10-27 06:52:05 51°14.605 2°54.932 19.2123 0.003129 0.022113 -3.020363
2011-10-27 06:52:10 51°14.617 2°54.916 19.2067 0.003129 0.022113 -3.020363
2011-10-27 06:52:15 51°14.629 2°54.9 19.2014 0.003129 0.022113 -3.020363
2011-10-27 06:52:20 51°14.641 2°54.884 19.2029 0.003129 0.022113 -3.020363
2011-10-27 06:52:25 51°14.653 2°54.869 19.2006 0.003129 0.022113 -3.020363
2011-10-27 06:52:30 51°14.665 2°54.853 19.1984 0.003129 0.022113 -3.020363
2011-10-27 06:52:35 51°14.677 2°54.838 19.2075 0.003129 0.022113 -3.020363
2011-10-27 06:52:40 51°14.689 2°54.822 19.2171 0.003129 0.022113 -3.020363
2011-10-27 06:52:45 51°14.701 2°54.807 19.2155 0.003129 0.022113 -3.020363
2011-10-27 06:52:50 51°14.714 2°54.791 19.1966 0.003129 0.022113 -3.020363
2011-10-27 06:52:55 51°14.726 2°54.775 19.1886 0.003129 0.022113 -3.020363
2011-10-27 06:53:00 51°14.738 2°54.761 19.185 0.003129 0.022113 -3.020363
2011-10-27 06:53:05 51°14.75 2°54.746 19.2094 0.003129 0.022113 -3.020363
2011-10-27 06:53:10 51°14.763 2°54.731 19.2061 0.003129 0.022113 -3.020363
2011-10-27 06:53:15 51°14.775 2°54.715 19.1931 0.003129 0.022113 -3.020363
2011-10-27 06:53:20 51°14.787 2°54.699 19.1994 0.003129 0.022113 -3.020363
2011-10-27 06:53:25 51°14.799 2°54.684 19.1861 0.003129 0.022113 -3.020363
2011-10-27 06:53:30 51°14.812 2°54.668 19.1878 0.003129 0.022113 -3.020363
2011-10-27 06:53:35 51°14.825 2°54.653 19.1891 0.003129 0.022113 -3.020363
2011-10-27 06:53:40 51°14.838 2°54.637 19.1916 0.003129 0.022113 -3.020363
2011-10-27 06:53:45 51°14.852 2°54.622 19.1912 0.003129 0.022113 -3.020363
2011-10-27 06:53:50 51°14.865 2°54.607 19.192 0.003129 0.022113 -3.020363
2011-10-27 06:53:55 51°14.879 2°54.592 19.21 0.003129 0.022113 -3.020363
2011-10-27 06:54:00 51°14.893 2°54.577 19.2182 0.003129 0.022113 -3.020363
2011-10-27 06:54:05 51°14.907 2°54.561 19.2256 0.003129 0.022113 -3.020363
2011-10-27 06:54:10 51°14.92 2°54.545 19.2213 0.003129 0.022113 -3.020363
2011-10-27 06:54:15 51°14.933 2°54.528 19.2112 0.003129 0.022113 -3.020363
2011-10-27 06:54:20 51°14.946 2°54.511 19.2096 0.003129 0.022113 -3.020363
2011-10-27 06:54:25 51°14.959 2°54.493 19.2089 0.003129 0.022113 -3.020363
2011-10-27 06:54:30 51°14.972 2°54.476 19.2132 0.003129 0.022113 -3.020363
2011-10-27 06:54:35 51°14.985 2°54.458 19.2065 0.003129 0.022113 -3.020363
2011-10-27 06:54:40 51°14.997 2°54.44 19.2018 0.003129 0.022113 -3.020363
2011-10-27 06:54:45 51°15.01 2°54.423 19.198 0.003129 0.022113 -3.020363
2011-10-27 06:54:50 51°15.024 2°54.406 19.2059 0.003129 0.022113 -3.020363
2011-10-27 06:54:55 51°15.037 2°54.39 18.1992 0.003129 0.022113 -3.020363
2011-10-27 06:55:00 51°15.05 2°54.373 16.9956 0.003129 0.022113 -3.020363
2011-10-27 06:55:05 51°15.064 2°54.357 15.6502 0.003129 0.022113 -3.020363
2011-10-27 06:55:10 51°15.078 2°54.342 15.4179 0.003129 0.022113 -3.020363
2011-10-27 06:55:15 51°15.092 2°54.328 14.5638 0.003129 0.022113 -3.020363
2011-10-27 06:55:20 51°15.106 2°54.313 14.0049 0.003129 0.022113 -3.020363
2011-10-27 06:55:25 51°15.121 2°54.299 13.7762 0.003129 0.022112 -3.020363
2011-10-27 06:55:29 51°15.132 2°54.287 13.5504 0.003129 0.022112 -3.020363
2011-10-27 06:55:35 51°15.15 2°54.27 13.4035 0.003129 0.022112 -3.020363
2011-10-27 06:55:40 51°15.164 2°54.255 13.2305 0.003129 0.022112 -3.020363
2011-10-27 06:55:45 51°15.178 2°54.241 13.1711 0.003129 0.022112 -3.020363
2011-10-27 06:55:50 51°15.192 2°54.226 13.0401 0.003026 0.02166 -3.020363
2011-10-27 06:55:55 51°15.206 2°54.212 12.9715 0.003026 0.021657 -3.020363
2011-10-27 06:56:00 51°15.22 2°54.196 12.8434 0.004568 0.028649 -3.020363
2011-10-27 06:56:05 51°15.234 2°54.181 12.765 0.01012 0.055186 -3.020363
2011-10-27 06:56:10 51°15.249 2°54.166 12.7676 0.01012 0.055186 -3.020363
2011-10-27 06:56:15 51°15.262 2°54.151 12.691 0.114991 0.620369 -3.020363
2011-10-27 06:56:20 51°15.276 2°54.135 12.6348 0.726339 4.35742 -3.020363
2011-10-27 06:56:25 51°15.29 2°54.12 12.6112 0.730148 4.38676 -3.020363
2011-10-27 06:56:30 51°15.304 2°54.104 12.5407 0.756298 4.560553 -3.020363
2011-10-27 06:56:35 51°15.318 2°54.089 12.5956 1.552137 9.905065 -3.020363
2011-10-27 06:56:40 51°15.332 2°54.073 12.5195 1.552137 9.905065 -3.020363
2011-10-27 06:56:45 51°15.346 2°54.058 12.5004 1.803703 11.691484 -3.020363
2011-10-27 06:56:50 51°15.36 2°54.043 12.5078 2.308046 15.408063 -3.020363
2011-10-27 06:56:55 51°15.374 2°54.027 12.5214 2.499042 17.006368 -3.020363
2011-10-27 06:57:00 51°15.388 2°54.011 12.4878 2.805368 19.590265 -3.020363
2011-10-27 06:57:05 51°15.401 2°53.995 12.4599 2.983631 21.184807 -3.020363
2011-10-27 06:57:10 51°15.415 2°53.978 12.461 2.983631 21.184807 -3.020363
2011-10-27 06:57:15 51°15.428 2°53.962 12.4971 3.282294 23.849041 -3.020363
2011-10-27 06:57:20 51°15.441 2°53.945 12.4425 3.597604 26.805629 -3.020363
2011-10-27 06:57:25 51°15.455 2°53.928 12.439 3.830129 29.080567 -3.020363
2011-10-27 06:57:30 51°15.468 2°53.91 12.4597 3.985863 30.579549 -3.020363
2011-10-27 06:57:35 51°15.482 2°53.893 12.4339 4.083187 31.769016 -3.020363
2011-10-27 06:57:40 51°15.495 2°53.876 12.4464 4.083187 31.769016 -3.020363
2011-10-27 06:57:45 51°15.508 2°53.859 12.415 4.145073 32.486612 -3.020363
2011-10-27 06:57:49 51°15.519 2°53.846 12.4464 4.190278 33.199294 -3.020363
2011-10-27 06:57:55 51°15.535 2°53.825 12.4102 4.213192 33.501845 -3.020363
2011-10-27 06:58:00 51°15.548 2°53.807 12.4237 4.226777 33.811243 -3.020363
2011-10-27 06:58:05 51°15.561 2°53.79 12.4002 4.228646 34.032642 -3.020363
2011-10-27 06:58:10 51°15.574 2°53.772 12.4209 4.228646 34.032642 -3.020363
2011-10-27 06:58:15 51°15.587 2°53.754 12.4077 4.226989 34.105217 -3.020363
2011-10-27 06:58:20 51°15.6 2°53.736 12.4319 4.224295 34.205012 -3.020363
2011-10-27 06:58:25 51°15.612 2°53.717 12.4046 4.218388 34.326074 -3.020363
2011-10-27 06:58:29 51°15.623 2°53.703 12.4333 4.210613 34.345374 -3.020363
2011-10-27 06:58:35 51°15.638 2°53.682 12.4233 4.201389 34.463149 -3.020363
2011-10-27 06:58:40 51°15.651 2°53.664 12.4483 4.201389 34.463149 -3.020363
2011-10-27 06:58:45 51°15.664 2°53.647 12.403 4.191852 34.459509 -3.020363
2011-10-27 06:58:50 51°15.678 2°53.629 12.4101 4.181799 34.518375 -3.020363
2011-10-27 06:58:55 51°15.691 2°53.612 12.438 4.173092 34.570794 -3.020363
2011-10-27 06:59:00 51°15.704 2°53.595 12.4218 4.163762 34.498699 -3.020363
2011-10-27 06:59:05 51°15.717 2°53.577 12.4391 4.154847 34.452957 -3.020363
2011-10-27 06:59:10 51°15.731 2°53.56 12.4349 4.154847 34.452957 -3.020363
2011-10-27 06:59:15 51°15.744 2°53.544 12.4151 4.146451 34.436034 -3.020363
2011-10-27 06:59:20 51°15.758 2°53.528 12.4225 4.138158 34.383146 -3.020363
2011-10-27 06:59:25 51°15.771 2°53.511 12.4291 4.12997 34.344713 -3.020363
2011-10-27 06:59:30 51°15.785 2°53.495 12.4306 4.122196 34.328908 -3.020363
2011-10-27 06:59:35 51°15.799 2°53.479 12.4291 4.11463 34.359605 -3.020363
2011-10-27 06:59:40 51°15.813 2°53.463 12.4323 4.11463 34.359605 -3.020363
2011-10-27 06:59:45 51°15.827 2°53.448 12.427 4.107165 34.168871 -3.020363
2011-10-27 06:59:50 51°15.841 2°53.433 12.4257 4.100737 34.022621 -3.020363
2011-10-27 06:59:55 51°15.855 2°53.418 12.4272 4.094728 34.110934 -3.020363
2011-10-27 07:00:00 51°15.869 2°53.403 12.4227 4.088512 34.299699 -3.020363
2011-10-27 07:00:05 51°15.884 2°53.39 12.4309 4.082915 34.253334 -3.020363
2011-10-27 07:00:10 51°15.898 2°53.375 12.4261 4.082915 34.253334 -3.020363
2011-10-27 07:00:15 51°15.912 2°53.362 12.4189 4.078043 34.219072 -3.020363
2011-10-27 07:00:20 51°15.927 2°53.348 12.4256 4.07338 34.233064 -3.020363
2011-10-27 07:00:25 51°15.941 2°53.334 12.433 4.068821 34.263352 -3.020363
2011-10-27 07:00:30 51°15.956 2°53.32 12.4414 4.064882 34.242333 -3.020363
2011-10-27 07:00:35 51°15.97 2°53.306 12.4328 4.061151 34.215624 -3.020363
2011-10-27 07:00:40 51°15.984 2°53.292 12.4462 4.061151 34.215624 -3.020363
2011-10-27 07:00:45 51°15.998 2°53.278 12.4522 4.05742 34.170625 -3.020363
2011-10-27 07:00:50 51°16.013 2°53.263 12.4502 4.053999 34.124781 -3.020363
2011-10-27 07:00:55 51°16.027 2°53.248 12.4587 4.050891 34.154134 -3.020363
2011-10-27 07:01:00 51°16.041 2°53.233 12.4571 4.048093 34.154468 -3.020363
2011-10-27 07:01:05 51°16.055 2°53.218 12.4773 4.045295 34.157099 -3.020363
2011-10-27 07:01:10 51°16.069 2°53.203 12.4785 4.045295 34.157099 -3.020363
2011-10-27 07:01:15 51°16.083 2°53.189 12.496 4.042807 34.138231 -3.020363
2011-10-27 07:01:20 51°16.097 2°53.174 12.4854 4.04032 34.133863 -3.020363
2011-10-27 07:01:25 51°16.111 2°53.16 12.481 4.03804 34.12152 -3.020363
2011-10-27 07:01:30 51°16.125 2°53.145 12.5031 4.035864 34.11626 -3.020363
2011-10-27 07:01:35 51°16.14 2°53.131 12.5007 4.033791 34.124973 -3.020363
2011-10-27 07:01:40 51°16.154 2°53.117 12.5194 4.033791 34.124973 -3.020363
2011-10-27 07:01:45 51°16.168 2°53.103 12.5115 4.031822 34.120908 -3.020363
2011-10-27 07:01:50 51°16.183 2°53.09 12.5211 4.029957 34.114759 -3.020363
2011-10-27 07:01:55 51°16.197 2°53.077 12.5291 4.028299 34.106741 -3.020363
2011-10-27 07:02:00 51°16.212 2°53.064 12.5315 4.026848 34.101445 -3.020363
2011-10-27 07:02:05 51°16.226 2°53.052 12.5378 4.025397 34.103037 -3.020363
2011-10-27 07:02:10 51°16.241 2°53.041 12.5325 4.025397 34.103037 -3.020363
2011-10-27 07:02:15 51°16.256 2°53.029 12.5333 4.023947 34.09391 -3.020363
2011-10-27 07:02:20 51°16.271 2°53.018 12.5599 4.022703 34.101296 -3.020363
2011-10-27 07:02:25 51°16.286 2°53.007 12.5318 4.021356 34.103876 -3.020363
2011-10-27 07:02:30 51°16.301 2°52.996 12.5527 4.020112 34.081376 -3.020363
2011-10-27 07:02:35 51°16.316 2°52.986 12.5459 4.018972 34.060637 -3.020363
2011-10-27 07:02:40 51°16.331 2°52.975 12.5521 4.018972 34.060637 -3.020363
2011-10-27 07:02:45 51°16.346 2°52.964 12.5509 4.018039 34.05717 -3.020363
2011-10-27 07:02:50 51°16.361 2°52.953 12.5506 4.017107 34.056765 -3.020363
2011-10-27 07:02:55 51°16.376 2°52.941 12.5562 4.016174 34.063254 -3.020363
2011-10-27 07:03:00 51°16.391 2°52.93 12.561 4.015345 34.043921 -3.020363
2011-10-27 07:03:05 51°16.406 2°52.92 12.5761 4.014516 34.03531 -3.020363
2011-10-27 07:03:10 51°16.421 2°52.908 12.5683 4.014516 34.03531 -3.020363
2011-10-27 07:03:15 51°16.436 2°52.897 12.5718 4.013583 34.035666 -3.020363
2011-10-27 07:03:20 51°16.451 2°52.886 12.5752 4.012754 34.042365 -3.020363
2011-10-27 07:03:25 51°16.466 2°52.874 12.5819 4.011925 34.043706 -3.020363
2011-10-27 07:03:30 51°16.481 2°52.863 12.587 4.011096 34.03279 -3.020363
2011-10-27 07:03:35 51°16.496 2°52.852 12.6019 4.010475 34.035327 -3.020363
2011-10-27 07:03:40 51°16.511 2°52.841 12.6013 4.010475 34.035327 -3.020363
2011-10-27 07:03:45 51°16.526 2°52.829 12.6157 4.009853 34.024843 -3.020363
2011-10-27 07:03:50 51°16.541 2°52.818 12.6293 4.009335 34.021467 -3.020363
2011-10-27 07:03:55 51°16.555 2°52.806 12.6207 4.008816 34.015028 -3.020363
2011-10-27 07:04:00 51°16.57 2°52.795 12.6212 4.008505 34.005197 -3.020363
2011-10-27 07:04:05 51°16.585 2°52.783 12.6225 4.008091 33.999742 -3.020363
2011-10-27 07:04:10 51°16.599 2°52.771 12.6309 4.008091 33.999742 -3.020363
2011-10-27 07:04:15 51°16.614 2°52.758 12.6426 4.00778 34.002919 -3.020363
2011-10-27 07:04:20 51°16.629 2°52.746 12.6418 4.007469 34.006863 -3.020363
2011-10-27 07:04:25 51°16.643 2°52.735 12.6399 4.007158 34.001622 -3.020363
2011-10-27 07:04:30 51°16.658 2°52.722 12.6488 4.006951 33.995834 -3.020363
2011-10-27 07:04:35 51°16.672 2°52.711 12.6597 4.006744 33.993106 -3.020363
2011-10-27 07:04:40 51°16.687 2°52.699 12.653 4.006744 33.993106 -3.020363
2011-10-27 07:04:45 51°16.701 2°52.687 12.6647 4.006536 33.996499 -3.020363
2011-10-27 07:04:50 51°16.716 2°52.675 12.6687 4.006329 33.997597 -3.020363
2011-10-27 07:04:55 51°16.73 2°52.663 12.6664 4.006122 33.995634 -3.020363
2011-10-27 07:05:00 51°16.744 2°52.652 12.6692 4.005915 33.996733 -3.020363
2011-10-27 07:05:05 51°16.758 2°52.64 12.6769 4.005707 33.982529 -3.020363
2011-10-27 07:05:10 51°16.773 2°52.628 12.682 4.005707 33.982529 -3.020363
2011-10-27 07:05:15 51°16.787 2°52.616 12.6788 4.0055 33.97063 -3.020363
2011-10-27 07:05:20 51°16.801 2°52.605 12.6945 4.005396 33.970413 -3.020363
2011-10-27 07:05:25 51°16.816 2°52.594 12.6911 4.0055 33.971394 -3.020363
2011-10-27 07:05:30 51°16.83 2°52.583 12.6985 4.0055 33.968337 -3.020363
2011-10-27 07:05:35 51°16.845 2°52.574 12.696 4.005396 33.968121 -3.020363
2011-10-27 07:05:40 51°16.86 2°52.564 12.694 4.005396 33.968121 -3.020363
2011-10-27 07:05:45 51°16.874 2°52.556 12.6958 4.005293 33.967904 -3.020363
2011-10-27 07:05:50 51°16.889 2°52.547 12.709 4.005293 33.96332 -3.020363
2011-10-27 07:05:55 51°16.904 2°52.539 12.7126 4.005189 33.966159 -3.020363
2011-10-27 07:06:00 51°16.919 2°52.532 12.7036 4.005189 33.958521 -3.020363
2011-10-27 07:06:05 51°16.934 2°52.524 12.7044 4.005189 33.959284 -3.020363
2011-10-27 07:06:10 51°16.949 2°52.517 12.7053 4.005189 33.959284 -3.020363
2011-10-27 07:06:15 51°16.964 2°52.509 12.7092 4.005085 33.952195 -3.020363
2011-10-27 07:06:20 51°16.979 2°52.502 12.7137 4.005085 33.9438 -3.020363
2011-10-27 07:06:25 51°16.994 2°52.495 12.719 4.005085 33.947616 -3.020363
2011-10-27 07:06:30 51°17.009 2°52.488 12.7128 4.005189 33.949359 -3.020363
2011-10-27 07:06:35 51°17.024 2°52.481 12.7126 4.005292 33.95034 -3.020363
2011-10-27 07:06:40 51°17.039 2°52.473 12.7213 4.005292 33.95034 -3.020363
2011-10-27 07:06:45 51°17.054 2°52.466 12.7178 4.005396 33.95132 -3.020363
2011-10-27 07:06:49 51°17.066 2°52.46 12.7305 4.005396 33.947504 -3.020363
2011-10-27 07:06:55 51°17.084 2°52.452 12.7303 4.005707 33.939764 -3.020363
2011-10-27 07:07:00 51°17.099 2°52.445 12.7328 4.005914 33.930288 -3.020363
2011-10-27 07:07:05 51°17.114 2°52.439 12.743 4.005914 33.926478 -3.020363
2011-10-27 07:07:09 51°17.126 2°52.434 12.7584 4.005914 33.926478 -3.020363
2011-10-27 07:07:15 51°17.145 2°52.425 12.7573 4.006121 33.943684 -3.020363
2011-10-27 07:07:20 51°17.16 2°52.419 12.754 4.006225 33.948478 -3.020363
2011-10-27 07:07:25 51°17.175 2°52.412 12.76 4.006328 33.942593 -3.020363
2011-10-27 07:07:30 51°17.19 2°52.406 12.7611 4.006432 33.936711 -3.020363
2011-10-27 07:07:35 51°17.205 2°52.398 12.764 4.006639 33.940957 -3.020363
2011-10-27 07:07:40 51°17.22 2°52.391 12.7746 4.006639 33.940957 -3.020363
2011-10-27 07:07:45 51°17.235 2°52.383 12.7722 4.006639 33.943245 -3.020363
2011-10-27 07:07:50 51°17.25 2°52.375 12.7742 4.006743 33.941937 -3.020363
2011-10-27 07:07:55 51°17.264 2°52.366 12.7869 4.006743 33.930504 -3.020363
2011-10-27 07:08:00 51°17.279 2°52.358 12.7819 4.006639 33.926477 -3.020363
2011-10-27 07:08:05 51°17.294 2°52.349 12.7877 4.006846 33.927674 -3.020363
2011-10-27 07:08:10 51°17.309 2°52.342 12.7995 4.006846 33.927674 -3.020363
2011-10-27 07:08:15 51°17.324 2°52.334 12.8005 4.00695 33.935511 -3.020363
2011-10-27 07:08:20 51°17.339 2°52.328 12.8038 4.007157 33.932136 -3.020363
2011-10-27 07:08:25 51°17.354 2°52.322 12.8043 4.007364 33.930285 -3.020363
2011-10-27 07:08:30 51°17.369 2°52.317 12.8039 4.007675 33.910385 -3.020363
2011-10-27 07:08:35 51°17.385 2°52.312 12.8157 4.007883 33.929088 -3.020363
2011-10-27 07:08:40 51°17.4 2°52.308 12.8182 4.007883 33.929088 -3.020363
2011-10-27 07:08:45 51°17.415 2°52.305 12.8249 4.008194 33.935834 -3.020363
2011-10-27 07:08:49 51°17.427 2°52.302 12.8284 4.008504 33.926586 -3.020363
2011-10-27 07:08:55 51°17.446 2°52.3 12.8318 4.008815 33.924955 -3.020363
2011-10-27 07:09:00 51°17.461 2°52.299 12.8452 4.00923 33.926586 -3.020363
2011-10-27 07:09:05 51°17.477 2°52.298 12.8464 4.009644 33.932024 -3.020363
2011-10-27 07:09:09 51°17.489 2°52.298 12.8522 4.009644 33.932024 -3.020363
2011-10-27 07:09:15 51°17.507 2°52.3 12.8673 4.010059 33.932132 -3.020363
2011-10-27 07:09:20 51°17.522 2°52.301 12.8667 4.01037 33.934307 -3.020363
2011-10-27 07:09:25 51°17.538 2°52.302 12.8799 4.010784 33.943552 -3.020363
2011-10-27 07:09:30 51°17.553 2°52.304 12.8822 4.011095 33.946488 -3.020363
2011-10-27 07:09:35 51°17.568 2°52.305 12.8812 4.011406 33.94714 -3.020363
2011-10-27 07:09:40 51°17.583 2°52.307 12.9026 4.011406 33.94714 -3.020363
2011-10-27 07:09:45 51°17.598 2°52.309 12.8984 4.011613 33.944528 -3.020363
2011-10-27 07:09:50 51°17.613 2°52.31 12.907 4.01182 33.944201 -3.020363
2011-10-27 07:09:55 51°17.628 2°52.312 12.9062 4.012028 33.947681 -3.020363
2011-10-27 07:10:00 51°17.644 2°52.313 12.9034 4.012339 33.96052 -3.020363
2011-10-27 07:10:05 51°17.659 2°52.315 12.9131 4.012442 33.959975 -3.020363
2011-10-27 07:10:10 51°17.674 2°52.316 12.9188 4.012442 33.959975 -3.020363
2011-10-27 07:10:15 51°17.689 2°52.317 12.9255 4.012753 33.957579 -3.020363
2011-10-27 07:10:20 51°17.704 2°52.319 12.9283 4.013064 33.959753 -3.020363
2011-10-27 07:10:25 51°17.719 2°52.32 12.9257 4.013375 33.952788 -3.020363
2011-10-27 07:10:30 51°17.735 2°52.321 12.9267 4.013582 33.947133 -3.020363
2011-10-27 07:10:35 51°17.75 2°52.323 12.94 4.013996 33.943436 -3.020363
2011-10-27 07:10:40 51°17.765 2°52.324 12.9478 4.013996 33.943436 -3.020363
2011-10-27 07:10:45 51°17.78 2°52.326 12.9431 4.014307 33.943327 -3.020363
2011-10-27 07:10:50 51°17.795 2°52.328 12.945 4.014618 33.950827 -3.020363
2011-10-27 07:10:55 51°17.81 2°52.33 12.9422 4.014929 33.957567 -3.020363
2011-10-27 07:11:00 51°17.826 2°52.333 12.9488 4.01524 33.958979 -3.020363
2011-10-27 07:11:05 51°17.841 2°52.335 12.9538 4.015551 33.948216 -3.020363
2011-10-27 07:11:10 51°17.856 2°52.338 12.958 4.015551 33.948216 -3.020363
2011-10-27 07:11:15 51°17.871 2°52.341 12.9642 4.015655 33.948433 -3.020363
2011-10-27 07:11:20 51°17.886 2°52.344 12.9611 4.015965 33.95441 -3.020363
2011-10-27 07:11:25 51°17.901 2°52.347 12.9655 4.016276 33.958105 -3.020363
2011-10-27 07:11:29 51°17.913 2°52.35 12.9687 4.016484 33.956256 -3.020363
2011-10-27 07:11:35 51°17.931 2°52.356 12.9781 4.016794 33.956147 -3.020363
2011-10-27 07:11:40 51°17.946 2°52.36 12.9742 4.016794 33.956147 -3.020363
2011-10-27 07:11:45 51°17.96 2°52.365 12.9689 4.017002 33.964951 -3.020363
2011-10-27 07:11:50 51°17.975 2°52.37 12.9727 4.017313 33.960275 -3.020363
2011-10-27 07:11:55 51°17.99 2°52.376 12.969 4.01752 33.948541 -3.020363
2011-10-27 07:12:00 51°18.004 2°52.382 12.9685 4.017727 33.941376 -3.020363
2011-10-27 07:12:05 51°18.019 2°52.387 12.9694 4.017934 33.952451 -3.020363
2011-10-27 07:12:10 51°18.033 2°52.393 12.9674 4.017934 33.952451 -3.020363
2011-10-27 07:12:15 51°18.048 2°52.399 12.9675 4.018245 33.950061 -3.020363
2011-10-27 07:12:20 51°18.062 2°52.407 12.9764 4.018556 33.950713 -3.020363
2011-10-27 07:12:25 51°18.076 2°52.417 12.9777 4.018867 33.952884 -3.020363
2011-10-27 07:12:30 51°18.089 2°52.427 12.9636 4.01897 33.950822 -3.020363
2011-10-27 07:12:35 51°18.102 2°52.437 12.9597 4.019385 33.95245 -3.020363
2011-10-27 07:12:40 51°18.115 2°52.449 12.96 4.019385 33.95245 -3.020363
2011-10-27 07:12:45 51°18.128 2°52.462 12.9624 4.019592 33.938453 -3.020363
2011-10-27 07:12:50 51°18.14 2°52.475 12.9647 4.019903 33.941383 -3.020363
2011-10-27 07:12:55 51°18.152 2°52.49 12.9786 4.020214 33.950389 -3.020363
2011-10-27 07:13:00 51°18.163 2°52.505 12.9641 4.020421 33.947025 -3.020363
2011-10-27 07:13:05 51°18.173 2°52.521 12.9639 4.020732 33.947677 -3.020363
2011-10-27 07:13:10 51°18.183 2°52.538 12.9626 4.020732 33.947677 -3.020363
2011-10-27 07:13:15 51°18.194 2°52.555 12.9603 4.020732 33.945399 -3.020363
2011-10-27 07:13:20 51°18.203 2°52.573 12.9586 4.021147 33.947028 -3.020363
2011-10-27 07:13:25 51°18.212 2°52.592 12.9546 4.021354 33.929252 -3.020363
2011-10-27 07:13:29 51°18.219 2°52.607 12.952 4.021664 33.935972 -3.020363
2011-10-27 07:13:35 51°18.229 2°52.631 12.9522 4.021975 33.937383 -3.020363
2011-10-27 07:13:40 51°18.236 2°52.652 12.9523 4.021975 33.937383 -3.020363
2011-10-27 07:13:45 51°18.243 2°52.673 12.9535 4.022286 33.931968 -3.020363
2011-10-27 07:13:49 51°18.248 2°52.69 12.945 4.022597 33.931104 -3.020363
2011-10-27 07:13:55 51°18.256 2°52.716 12.9333 4.022908 33.927209 -3.020363
2011-10-27 07:14:00 51°18.262 2°52.738 12.942 4.023115 33.922341 -3.020363
2011-10-27 07:14:05 51°18.268 2°52.759 12.9278 4.023426 33.936635 -3.020363
2011-10-27 07:14:10 51°18.273 2°52.781 12.9323 4.023426 33.936635 -3.020363
2011-10-27 07:14:15 51°18.279 2°52.804 12.9296 4.023633 33.94162 -3.020363
2011-10-27 07:14:20 51°18.283 2°52.826 12.9291 4.023944 33.947581 -3.020363
2011-10-27 07:14:25 51°18.288 2°52.849 12.9253 4.024255 33.946716 -3.020363
2011-10-27 07:14:30 51°18.293 2°52.872 12.9211 4.02467 33.943035 -3.020363
2011-10-27 07:14:35 51°18.298 2°52.894 12.9211 4.025084 33.943905 -3.020363
2011-10-27 07:14:40 51°18.303 2°52.917 12.913 4.025084 33.943905 -3.020363
2011-10-27 07:14:45 51°18.308 2°52.94 12.9126 4.025395 33.937735 -3.020363
2011-10-27 07:14:49 51°18.312 2°52.958 12.9062 4.025809 33.936332 -3.020363
2011-10-27 07:14:55 51°18.317 2°52.985 12.9138 4.026121 33.946078 -3.020363
2011-10-27 07:15:00 51°18.322 2°53.008 12.915 4.026431 33.95052 -3.020363
2011-10-27 07:15:05 51°18.326 2°53.031 12.9109 4.026846 33.953664 -3.020363
2011-10-27 07:15:10 51°18.33 2°53.054 12.9076 4.026846 33.953664 -3.020363
2011-10-27 07:15:15 51°18.335 2°53.078 12.9004 4.02726 33.949984 -3.020363
2011-10-27 07:15:20 51°18.339 2°53.101 12.9041 4.027571 33.937 -3.020363
2011-10-27 07:15:25 51°18.344 2°53.124 12.8988 4.027882 33.93311 -3.020363
2011-10-27 07:15:30 51°18.348 2°53.147 12.9074 4.028297 33.938523 -3.020363
2011-10-27 07:15:35 51°18.353 2°53.17 12.9076 4.028608 33.94599 -3.020363
2011-10-27 07:15:40 51°18.357 2°53.193 12.9095 4.028608 33.94599 -3.020363
2011-10-27 07:15:45 51°18.362 2°53.216 12.8978 4.028918 33.948157 -3.020363
2011-10-27 07:15:50 51°18.366 2°53.239 12.8997 4.029229 33.951838 -3.020363
2011-10-27 07:15:55 51°18.371 2°53.262 12.8925 4.02954 33.957036 -3.020363
2011-10-27 07:16:00 51°18.376 2°53.284 12.9054 4.029955 33.963209 -3.020363
2011-10-27 07:16:05 51°18.381 2°53.307 12.8903 4.030266 33.969166 -3.020363
2011-10-27 07:16:10 51°18.387 2°53.329 12.8932 4.030266 33.969166 -3.020363
2011-10-27 07:16:15 51°18.392 2°53.352 12.8965 4.030577 33.974365 -3.020363
2011-10-27 07:16:20 51°18.397 2°53.374 12.884 4.030784 33.973282 -3.020363
2011-10-27 07:16:25 51°18.403 2°53.396 12.8827 4.031095 33.972417 -3.020363
2011-10-27 07:16:30 51°18.408 2°53.418 12.8897 4.03151 33.980108 -3.020363
2011-10-27 07:16:35 51°18.414 2°53.441 12.8852 4.031717 33.982816 -3.020363
2011-10-27 07:16:40 51°18.42 2°53.463 12.8808 4.031717 33.982816 -3.020363
2011-10-27 07:16:45 51°18.425 2°53.485 12.8822 4.032131 33.977617 -3.020363
2011-10-27 07:16:50 51°18.431 2°53.508 12.8789 4.032442 33.9813 -3.020363
2011-10-27 07:16:55 51°18.436 2°53.53 12.8761 4.032753 33.987258 -3.020363
2011-10-27 07:17:00 51°18.442 2°53.552 12.8742 4.032961 33.996794 -3.020363
2011-10-27 07:17:05 51°18.448 2°53.574 12.8678 4.033272 34.002755 -3.020363
2011-10-27 07:17:10 51°18.453 2°53.597 12.8699 4.033272 34.002755 -3.020363
2011-10-27 07:17:15 51°18.459 2°53.618 12.8739 4.033582 34.005681 -3.020363
2011-10-27 07:17:20 51°18.465 2°53.64 12.8656 4.033893 34.001017 -3.020363
2011-10-27 07:17:25 51°18.471 2°53.662 12.8609 4.034204 34.010015 -3.020363
2011-10-27 07:17:30 51°18.477 2°53.684 12.8628 4.034515 34.022054 -3.020363
2011-10-27 07:17:35 51°18.483 2°53.706 12.864 4.034723 34.025524 -3.020363
2011-10-27 07:17:40 51°18.489 2°53.728 12.8607 4.034723 34.025524 -3.020363
2011-10-27 07:17:45 51°18.495 2°53.75 12.8526 4.035034 34.027691 -3.020363
2011-10-27 07:17:50 51°18.501 2°53.772 12.851 4.035344 34.018465 -3.020363
2011-10-27 07:17:55 51°18.507 2°53.794 12.8528 4.035552 34.015101 -3.020363
2011-10-27 07:18:00 51°18.513 2°53.816 12.8497 4.035655 34.033545 -3.020363
2011-10-27 07:18:05 51°18.519 2°53.838 12.8345 4.035863 34.041578 -3.020363
2011-10-27 07:18:10 51°18.525 2°53.859 12.846 4.035863 34.041578 -3.020363
2011-10-27 07:18:15 51°18.531 2°53.881 12.8371 4.03607 34.02909 -3.020363
2011-10-27 07:18:20 51°18.538 2°53.903 12.8381 4.036277 34.0318 -3.020363
2011-10-27 07:18:25 51°18.545 2°53.924 12.8277 4.036485 34.048193 -3.020363
2011-10-27 07:18:30 51°18.552 2°53.945 12.8203 4.036588 34.054493 -3.020363
2011-10-27 07:18:35 51°18.559 2°53.966 12.8213 4.036899 34.059704 -3.020363
2011-10-27 07:18:40 51°18.566 2°53.988 12.8177 4.036899 34.059704 -3.020363
2011-10-27 07:18:45 51°18.573 2°54.009 12.8167 4.037107 34.063178 -3.020363
2011-10-27 07:18:50 51°18.58 2°54.03 12.8083 4.03721 34.064915 -3.020363
2011-10-27 07:18:55 51°18.587 2°54.051 12.8074 4.037418 34.071435 -3.020363
2011-10-27 07:19:00 51°18.594 2°54.072 12.8081 4.037521 34.060995 -3.020363
2011-10-27 07:19:05 51°18.601 2°54.093 12.7992 4.037625 34.058928 -3.020363
2011-10-27 07:19:10 51°18.608 2°54.114 12.8022 4.037625 34.058928 -3.020363
2011-10-27 07:19:15 51°18.615 2°54.135 12.8034 4.037832 34.066967 -3.020363
2011-10-27 07:19:20 51°18.623 2°54.156 12.7917 4.037936 34.064138 -3.020363
2011-10-27 07:19:25 51°18.63 2°54.178 12.7906 4.03804 34.080339 -3.020363
2011-10-27 07:19:30 51°18.636 2°54.199 12.797 4.038039 34.06968 -3.020363
2011-10-27 07:19:35 51°18.643 2°54.22 12.7825 4.038143 34.07294 -3.020363
2011-10-27 07:19:40 51°18.651 2°54.241 12.7902 4.038143 34.07294 -3.020363
2011-10-27 07:19:45 51°18.658 2°54.262 12.7899 4.038247 34.083816 -3.020363
2011-10-27 07:19:50 51°18.665 2°54.283 12.7782 4.038247 34.071632 -3.020363
2011-10-27 07:19:55 51°18.672 2°54.305 12.7769 4.038247 34.091435 -3.020363
2011-10-27 07:20:00 51°18.679 2°54.326 12.7807 4.038247 34.080007 -3.020363
2011-10-27 07:20:05 51°18.686 2°54.347 12.779 4.03835 34.078699 -3.020363
2011-10-27 07:20:10 51°18.693 2°54.368 12.7672 4.03835 34.078699 -3.020363
2011-10-27 07:20:15 51°18.7 2°54.39 12.7633 4.038454 34.072062 -3.020363
2011-10-27 07:20:20 51°18.706 2°54.411 12.7724 4.038454 34.088054 -3.020363
2011-10-27 07:20:25 51°18.713 2°54.433 12.7578 4.038454 34.093388 -3.020363
2011-10-27 07:20:29 51°18.718 2°54.45 12.7635 4.038454 34.078914 -3.020363
2011-10-27 07:20:35 51°18.725 2°54.477 12.7626 4.038558 34.092841 -3.020363
2011-10-27 07:20:40 51°18.731 2°54.498 12.7615 4.038558 34.092841 -3.020363
2011-10-27 07:20:45 51°18.737 2°54.521 12.7528 4.038558 34.109616 -3.020363
2011-10-27 07:20:50 51°18.743 2°54.543 12.7494 4.038662 34.108304 -3.020363
2011-10-27 07:20:55 51°18.748 2°54.565 12.7496 4.038661 34.091531 -3.020363
2011-10-27 07:21:00 51°18.754 2°54.588 12.7497 4.038558 34.092079 -3.020363
2011-10-27 07:21:05 51°18.759 2°54.61 12.7426 4.038558 34.082175 -3.020363
2011-10-27 07:21:10 51°18.764 2°54.633 12.7417 4.038558 34.082175 -3.020363
2011-10-27 07:21:15 51°18.769 2°54.655 12.7485 4.038558 34.086745 -3.020363
2011-10-27 07:21:20 51°18.774 2°54.678 12.7463 4.038558 34.095889 -3.020363
2011-10-27 07:21:25 51°18.78 2°54.7 12.7389 4.038455 34.123904 -3.020363
2011-10-27 07:21:30 51°18.785 2°54.723 12.7479 4.038351 34.136677 -3.020363
2011-10-27 07:21:35 51°18.791 2°54.745 12.7427 4.038248 34.138756 -3.020363
2011-10-27 07:21:40 51°18.796 2°54.767 12.7398 4.038248 34.138756 -3.020363
2011-10-27 07:21:45 51°18.802 2°54.79 12.7367 4.038248 34.138756 -3.020363
2011-10-27 07:21:50 51°18.808 2°54.812 12.7373 4.038144 34.143129 -3.020363
2011-10-27 07:21:55 51°18.813 2°54.834 12.7356 4.038144 34.142365 -3.020363
2011-10-27 07:22:00 51°18.819 2°54.856 12.7338 4.03804 34.126103 -3.020363
2011-10-27 07:22:05 51°18.825 2°54.879 12.7279 4.03804 34.129922 -3.020363
2011-10-27 07:22:10 51°18.831 2°54.9 12.7297 4.03804 34.129922 -3.020363
2011-10-27 07:22:15 51°18.836 2°54.923 12.7278 4.037937 34.141937 -3.020363
2011-10-27 07:22:20 51°18.842 2°54.945 12.7299 4.037833 34.147077 -3.020363
2011-10-27 07:22:25 51°18.847 2°54.967 12.7325 4.037626 34.148945 -3.020363
2011-10-27 07:22:29 51°18.852 2°54.985 12.7231 4.037626 34.147415 -3.020363
2011-10-27 07:22:35 51°18.859 2°55.012 12.7243 4.037419 34.144693 -3.020363
2011-10-27 07:22:40 51°18.865 2°55.034 12.7209 4.037419 34.144693 -3.020363
2011-10-27 07:22:45 51°18.871 2°55.056 12.7289 4.037315 34.144479 -3.020363
2011-10-27 07:22:49 51°18.876 2°55.073 12.7289 4.037315 34.158254 -3.020363
2011-10-27 07:22:55 51°18.883 2°55.099 12.7134 4.037212 34.15804 -3.020363
2011-10-27 07:23:00 51°18.89 2°55.121 12.7134 4.037004 34.159911 -3.020363
2011-10-27 07:23:05 51°18.897 2°55.142 12.7151 4.036901 34.167356 -3.020363
2011-10-27 07:23:10 51°18.904 2°55.163 12.7223 4.036901 34.167356 -3.020363
2011-10-27 07:23:15 51°18.911 2°55.184 12.7188 4.036901 34.16659 -3.020363
2011-10-27 07:23:20 51°18.917 2°55.206 12.7224 4.036797 34.164845 -3.020363
2011-10-27 07:23:25 51°18.924 2°55.227 12.712 4.03659 34.171314 -3.020363
2011-10-27 07:23:30 51°18.93 2°55.249 12.7104 4.036486 34.171101 -3.020363
2011-10-27 07:23:35 51°18.937 2°55.271 12.7078 4.036279 34.175274 -3.020363
2011-10-27 07:23:40 51°18.943 2°55.292 12.7016 4.036279 34.175274 -3.020363
2011-10-27 07:23:45 51°18.949 2°55.314 12.7008 4.036175 34.1628 -3.020363
2011-10-27 07:23:50 51°18.956 2°55.335 12.7067 4.035968 34.162373 -3.020363
2011-10-27 07:23:55 51°18.963 2°55.357 12.702 4.035865 34.163692 -3.020363
2011-10-27 07:24:00 51°18.969 2°55.378 12.6948 4.035761 34.164245 -3.020363
2011-10-27 07:24:05 51°18.976 2°55.4 12.694 4.035554 34.163819 -3.020363
2011-10-27 07:24:10 51°18.983 2°55.421 12.6905 4.035554 34.163819 -3.020363
2011-10-27 07:24:15 51°18.989 2°55.443 12.6887 4.035347 34.17029 -3.020363
2011-10-27 07:24:20 51°18.995 2°55.464 12.6883 4.035243 34.176212 -3.020363
2011-10-27 07:24:25 51°19.001 2°55.486 12.6928 4.035036 34.175786 -3.020363
2011-10-27 07:24:29 51°19.006 2°55.504 12.6878 4.034829 34.18073 -3.020363
2011-10-27 07:24:35 51°19.012 2°55.531 12.6827 4.034621 34.184908 -3.020363
2011-10-27 07:24:40 51°19.018 2°55.553 12.6862 4.034621 34.184908 -3.020363
2011-10-27 07:24:45 51°19.023 2°55.575 12.6798 4.034414 34.179111 -3.020363
2011-10-27 07:24:49 51°19.027 2°55.593 12.6736 4.034103 34.169267 -3.020363
2011-10-27 07:24:55 51°19.034 2°55.62 12.6672 4.033896 34.171908 -3.020363
2011-10-27 07:25:00 51°19.039 2°55.642 12.6691 4.033688 34.166881 -3.020363
2011-10-27 07:25:05 51°19.045 2°55.664 12.6713 4.033378 34.163174 -3.020363
2011-10-27 07:25:09 51°19.05 2°55.682 12.664 4.033378 34.163174 -3.020363
2011-10-27 07:25:15 51°19.057 2°55.708 12.6561 4.03317 34.166582 -3.020363
2011-10-27 07:25:20 51°19.063 2°55.73 12.6539 4.03286 34.173614 -3.020363
2011-10-27 07:25:25 51°19.069 2°55.752 12.6506 4.032652 34.174723 -3.020363
2011-10-27 07:25:29 51°19.073 2°55.77 12.6429 4.032549 34.17144 -3.020363
2011-10-27 07:25:35 51°19.081 2°55.795 12.6324 4.032341 34.174084 -3.020363
2011-10-27 07:25:40 51°19.087 2°55.817 12.634 4.032341 34.174084 -3.020363
2011-10-27 07:25:45 51°19.093 2°55.839 12.628 4.032134 34.165984 -3.020363
2011-10-27 07:25:50 51°19.1 2°55.86 12.6215 4.031927 34.167093 -3.020363
2011-10-27 07:25:55 51°19.106 2°55.882 12.6157 4.031823 34.164578 -3.020363
2011-10-27 07:26:00 51°19.112 2°55.903 12.6089 4.031616 34.168755 -3.020363
2011-10-27 07:26:05 51°19.119 2°55.925 12.6087 4.031409 34.172935 -3.020363
2011-10-27 07:26:10 51°19.126 2°55.946 12.6003 4.031409 34.172935 -3.020363
2011-10-27 07:26:15 51°19.132 2°55.967 12.6093 4.031202 34.17558 -3.020363
2011-10-27 07:26:20 51°19.14 2°55.988 12.6006 4.030994 34.177458 -3.020363
2011-10-27 07:26:25 51°19.146 2°56.009 12.5923 4.030787 34.165516 -3.020363
2011-10-27 07:26:30 51°19.153 2°56.031 12.5783 4.03058 34.165089 -3.020363
2011-10-27 07:26:35 51°19.159 2°56.052 12.5735 4.030372 34.169269 -3.020363
2011-10-27 07:26:40 51°19.166 2°56.073 12.5765 4.030372 34.169269 -3.020363
2011-10-27 07:26:45 51°19.172 2°56.095 12.57 4.030165 34.16654 -3.020363
2011-10-27 07:26:49 51°19.177 2°56.112 12.5579 4.029958 34.17072 -3.020363
2011-10-27 07:26:55 51°19.185 2°56.138 12.5559 4.029751 34.176439 -3.020363
2011-10-27 07:27:00 51°19.191 2°56.16 12.5419 4.029544 34.17755 -3.020363
2011-10-27 07:27:05 51°19.198 2°56.181 12.5445 4.029336 34.173283 -3.020363
2011-10-27 07:27:10 51°19.204 2°56.203 12.5389 4.029336 34.173283 -3.020363
2011-10-27 07:27:15 51°19.21 2°56.224 12.5317 4.029129 34.175162 -3.020363
2011-10-27 07:27:20 51°19.216 2°56.246 12.5294 4.028922 34.178578 -3.020363
2011-10-27 07:27:25 51°19.222 2°56.268 12.5178 4.028611 34.179477 -3.020363
2011-10-27 07:27:30 51°19.229 2°56.289 12.5095 4.028404 34.170597 -3.020363
2011-10-27 07:27:35 51°19.234 2°56.311 12.5107 4.028196 34.180932 -3.020363
2011-10-27 07:27:40 51°19.241 2°56.333 12.5145 4.028196 34.180932 -3.020363
2011-10-27 07:27:45 51°19.247 2°56.355 12.5023 4.027885 34.167996 -3.020363
2011-10-27 07:27:50 51°19.253 2°56.377 12.4952 4.027678 34.170643 -3.020363
2011-10-27 07:27:55 51°19.258 2°56.399 12.4867 4.027471 34.174829 -3.020363
2011-10-27 07:28:00 51°19.265 2°56.42 12.4894 4.027264 34.179786 -3.020363
2011-10-27 07:28:05 51°19.27 2°56.442 12.4894 4.027057 34.186283 -3.020363
2011-10-27 07:28:10 51°19.276 2°56.464 12.4718 4.027057 34.186283 -3.020363
2011-10-27 07:28:15 51°19.282 2°56.485 12.4726 4.026849 34.189705 -3.020363
2011-10-27 07:28:20 51°19.288 2°56.507 12.4695 4.026746 34.178721 -3.020363
2011-10-27 07:28:25 51°19.294 2°56.529 12.4473 4.026538 34.176757 -3.020363
2011-10-27 07:28:30 51°19.3 2°56.551 12.4487 4.026331 34.180178 -3.020363
2011-10-27 07:28:35 51°19.305 2°56.572 12.4476 4.026124 34.186677 -3.020363
2011-10-27 07:28:40 51°19.311 2°56.594 12.4456 4.026124 34.186677 -3.020363
2011-10-27 07:28:45 51°19.318 2°56.615 12.4229 4.02602 34.191083 -3.020363
2011-10-27 07:28:50 51°19.323 2°56.637 12.4216 4.02571 34.190446 -3.020363
2011-10-27 07:28:55 51°19.329 2°56.659 12.4202 4.025502 34.200033 -3.020363
2011-10-27 07:29:00 51°19.335 2°56.681 12.4164 4.025192 34.20402 -3.020363
2011-10-27 07:29:05 51°19.341 2°56.702 12.4095 4.025192 34.214042 -3.020363
2011-10-27 07:29:10 51°19.346 2°56.724 12.393 4.025192 34.214042 -3.020363
2011-10-27 07:29:15 51°19.352 2°56.745 12.3855 4.024984 34.201283 -3.020363
2011-10-27 07:29:20 51°19.358 2°56.767 12.3733 4.024777 34.207025 -3.020363
2011-10-27 07:29:25 51°19.364 2°56.789 12.3682 4.02457 34.217398 -3.020363
2011-10-27 07:29:30 51°19.37 2°56.81 12.36 4.024363 34.211574 -3.020363
2011-10-27 07:29:35 51°19.377 2°56.831 12.3484 4.024156 34.228128 -3.020363
2011-10-27 07:29:40 51°19.383 2°56.852 12.3504 4.024156 34.228128 -3.020363
2011-10-27 07:29:45 51°19.39 2°56.873 12.3444 4.023949 34.233883 -3.020363
2011-10-27 07:29:50 51°19.396 2°56.894 12.3365 4.023741 34.241186 -3.020363
2011-10-27 07:29:55 51°19.403 2°56.914 12.3265 4.023534 34.237671 -3.020363
2011-10-27 07:30:00 51°19.41 2°56.935 12.3203 4.023327 34.234157 -3.020363
2011-10-27 07:30:05 51°19.417 2°56.956 12.3162 4.023119 34.208256 -3.020363
2011-10-27 07:30:10 51°19.424 2°56.976 12.309 4.023119 34.208256 -3.020363
2011-10-27 07:30:15 51°19.431 2°56.997 12.3117 4.023016 34.222708 -3.020363
2011-10-27 07:30:20 51°19.437 2°57.018 12.2979 4.022809 34.235417 -3.020363
2011-10-27 07:30:25 51°19.444 2°57.039 12.2986 4.022602 34.248138 -3.020363
2011-10-27 07:30:30 51°19.451 2°57.06 12.2997 4.022291 34.23204 -3.020363
2011-10-27 07:30:35 51°19.457 2°57.081 12.286 4.022083 34.239346 -3.020363
2011-10-27 07:30:40 51°19.464 2°57.102 12.2833 4.022083 34.239346 -3.020363
2011-10-27 07:30:45 51°19.47 2°57.123 12.2798 4.021773 34.247993 -3.020363
2011-10-27 07:30:50 51°19.477 2°57.144 12.2789 4.021462 34.231891 -3.020363
2011-10-27 07:30:55 51°19.483 2°57.165 12.2792 4.021151 34.238215 -3.020363
2011-10-27 07:31:00 51°19.49 2°57.186 12.2619 4.020943 34.233925 -3.020363
2011-10-27 07:31:05 51°19.496 2°57.208 12.25 4.020529 34.25397 -3.020363
2011-10-27 07:31:10 51°19.502 2°57.229 12.249 4.020529 34.25397 -3.020363
2011-10-27 07:31:15 51°19.508 2°57.25 12.2455 4.020218 34.219301 -3.020363
2011-10-27 07:31:20 51°19.515 2°57.271 12.2497 4.020114 34.178189 -3.020363
2011-10-27 07:31:25 51°19.522 2°57.292 12.2465 4.019803 34.196831 -3.020363
2011-10-27 07:31:29 51°19.527 2°57.309 12.2401 4.019492 34.184622 -3.020363
2011-10-27 07:31:35 51°19.535 2°57.334 12.2362 4.019181 34.147778 -3.020363
2011-10-27 07:31:40 51°19.542 2°57.355 12.2341 4.019181 34.147778 -3.020363
2011-10-27 07:31:45 51°19.548 2°57.377 12.2256 4.018974 34.187415 -3.020363
2011-10-27 07:31:49 51°19.553 2°57.393 12.2241 4.01887 34.196463 -3.020363
2011-10-27 07:31:55 51°19.561 2°57.419 12.2209 4.018767 34.186218 -3.020363
2011-10-27 07:32:00 51°19.567 2°57.441 12.2122 4.01856 34.212817 -3.020363
2011-10-27 07:32:05 51°19.572 2°57.463 12.21 4.018456 34.224202 -3.020363
2011-10-27 07:32:10 51°19.578 2°57.485 12.2205 4.018456 34.224202 -3.020363
2011-10-27 07:32:15 51°19.584 2°57.506 12.2245 4.018353 34.225536 -3.020363
2011-10-27 07:32:20 51°19.589 2°57.528 12.2072 4.018042 34.232638 -3.020363
2011-10-27 07:32:25 51°19.595 2°57.55 12.2118 4.017731 34.238195 -3.020363
2011-10-27 07:32:30 51°19.601 2°57.571 12.2109 4.017316 34.216457 -3.020363
2011-10-27 07:32:35 51°19.607 2°57.593 12.2068 4.017109 34.221447 -3.020363
2011-10-27 07:32:40 51°19.612 2°57.615 12.1956 4.017109 34.221447 -3.020363
2011-10-27 07:32:45 51°19.618 2°57.636 12.1954 4.016799 34.237065 -3.020363
2011-10-27 07:32:50 51°19.623 2°57.658 12.1927 4.016384 34.22925 -3.020363
2011-10-27 07:32:55 51°19.629 2°57.68 12.1953 4.016073 34.234809 -3.020363
2011-10-27 07:33:00 51°19.634 2°57.702 12.1902 4.015555 34.244598 -3.020363
2011-10-27 07:33:05 51°19.64 2°57.723 12.1872 4.015141 34.232129 -3.020363
2011-10-27 07:33:10 51°19.646 2°57.745 12.1789 4.015141 34.232129 -3.020363
2011-10-27 07:33:15 51°19.653 2°57.766 12.1902 4.014622 34.236494 -3.020363
2011-10-27 07:33:20 51°19.659 2°57.787 12.1883 4.014104 34.234661 -3.020363
2011-10-27 07:33:25 51°19.666 2°57.808 12.1949 4.013586 34.250662 -3.020363
2011-10-27 07:33:29 51°19.671 2°57.824 12.1865 4.013068 34.221696 -3.020363
2011-10-27 07:33:35 51°19.679 2°57.849 12.186 4.01255 34.224511 -3.020363
2011-10-27 07:33:40 51°19.685 2°57.871 12.1848 4.01255 34.224511 -3.020363
2011-10-27 07:33:45 51°19.692 2°57.892 12.1811 4.012032 34.226551 -3.020363
2011-10-27 07:33:49 51°19.696 2°57.909 12.1788 4.011617 34.239662 -3.020363
2011-10-27 07:33:55 51°19.704 2°57.934 12.1801 4.011099 34.226971 -3.020363
2011-10-27 07:34:00 51°19.711 2°57.955 12.1845 4.010478 34.240439 -3.020363
2011-10-27 07:34:05 51°19.717 2°57.977 12.1817 4.009959 34.235501 -3.020363
2011-10-27 07:34:09 51°19.722 2°57.994 12.1875 4.009959 34.235501 -3.020363
2011-10-27 07:34:15 51°19.73 2°58.019 12.1794 4.009441 34.222806 -3.020363
2011-10-27 07:34:20 51°19.735 2°58.041 12.1745 4.008716 34.214344 -3.020363
2011-10-27 07:34:25 51°19.741 2°58.063 12.1706 4.00799 34.21984 -3.020363
2011-10-27 07:34:29 51°19.745 2°58.08 12.1718 4.007369 34.215466 -3.020363
2011-10-27 07:34:35 51°19.751 2°58.107 12.1737 4.006643 34.204676 -3.020363
2011-10-27 07:34:40 51°19.757 2°58.128 12.1775 4.006643 34.204676 -3.020363
2011-10-27 07:34:45 51°19.762 2°58.15 12.1755 4.005814 34.202978 -3.020363
2011-10-27 07:34:50 51°19.767 2°58.172 12.1641 4.005192 34.206359 -3.020363
2011-10-27 07:34:55 51°19.772 2°58.193 12.1602 4.004363 34.200007 -3.020363
2011-10-27 07:35:00 51°19.777 2°58.215 12.1657 4.003638 34.199297 -3.020363
2011-10-27 07:35:05 51°19.782 2°58.237 12.1635 4.002912 34.177651 -3.020363
2011-10-27 07:35:10 51°19.787 2°58.258 12.1617 4.002912 34.177651 -3.020363
2011-10-27 07:35:15 51°19.793 2°58.28 12.1643 4.002083 34.181375 -3.020363
2011-10-27 07:35:20 51°19.798 2°58.301 12.1613 4.001358 34.183765 -3.020363
2011-10-27 07:35:25 51°19.803 2°58.323 12.1586 4.000426 34.195045 -3.020363
2011-10-27 07:35:30 51°19.808 2°58.344 12.1667 3.999597 34.187135 -3.020363
2011-10-27 07:35:35 51°19.814 2°58.366 12.1645 3.998664 34.17591 -3.020363
2011-10-27 07:35:40 51°19.82 2°58.387 12.1562 3.998664 34.17591 -3.020363
2011-10-27 07:35:45 51°19.826 2°58.408 12.1544 3.997628 34.181545 -3.020363
2011-10-27 07:35:49 51°19.831 2°58.425 12.157 3.996384 34.185208 -3.020363
2011-10-27 07:35:55 51°19.838 2°58.45 12.1553 3.995141 34.174113 -3.020363
2011-10-27 07:36:00 51°19.845 2°58.47 12.1579 3.993897 34.160689 -3.020363
2011-10-27 07:36:05 51°19.851 2°58.491 12.1677 3.992446 34.146064 -3.020363
2011-10-27 07:36:10 51°19.857 2°58.512 12.1511 3.992446 34.146064 -3.020363
2011-10-27 07:36:15 51°19.864 2°58.532 12.1494 3.991203 34.128766 -3.020363
2011-10-27 07:36:20 51°19.871 2°58.553 12.1609 3.989752 34.112597 -3.020363
2011-10-27 07:36:25 51°19.877 2°58.574 12.1515 3.988094 34.094453 -3.020363
2011-10-27 07:36:30 51°19.883 2°58.595 12.1443 3.986539 34.086593 -3.020363
2011-10-27 07:36:35 51°19.89 2°58.615 12.1442 3.985192 34.079934 -3.020363
2011-10-27 07:36:40 51°19.896 2°58.636 12.1403 3.985192 34.079934 -3.020363
2011-10-27 07:36:45 51°19.902 2°58.657 12.1411 3.983741 34.064541 -3.020363
2011-10-27 07:36:50 51°19.907 2°58.679 12.1448 3.982187 34.048936 -3.020363
2011-10-27 07:36:55 51°19.912 2°58.7 12.1331 3.980633 34.044936 -3.020363
2011-10-27 07:37:00 51°19.918 2°58.721 12.1362 3.978975 34.034529 -3.020363
2011-10-27 07:37:05 51°19.923 2°58.743 12.134 3.977316 34.011746 -3.020363
2011-10-27 07:37:10 51°19.929 2°58.764 12.1371 3.977316 34.011746 -3.020363
2011-10-27 07:37:15 51°19.934 2°58.785 12.1418 3.975658 34.008294 -3.020363
2011-10-27 07:37:20 51°19.94 2°58.806 12.1294 3.974104 33.995778 -3.020363
2011-10-27 07:37:25 51°19.945 2°58.828 12.1382 3.97255 33.982488 -3.020363
2011-10-27 07:37:30 51°19.95 2°58.849 12.1384 3.971099 33.969414 -3.020363
2011-10-27 07:37:35 51°19.955 2°58.871 12.137 3.969544 33.953035 -3.020363
2011-10-27 07:37:40 51°19.96 2°58.892 12.1343 3.969544 33.953035 -3.020363
2011-10-27 07:37:45 51°19.965 2°58.913 12.1307 3.96799 33.938974 -3.020363
2011-10-27 07:37:50 51°19.971 2°58.935 12.1394 3.966436 33.930314 -3.020363
2011-10-27 07:37:55 51°19.976 2°58.956 12.1404 3.964985 33.913384 -3.020363
2011-10-27 07:38:00 51°19.982 2°58.977 12.145 3.963431 33.903179 -3.020363
2011-10-27 07:38:05 51°19.987 2°58.998 12.146 3.96198 33.897045 -3.020363
2011-10-27 07:38:10 51°19.993 2°59.019 12.1361 3.96198 33.897045 -3.020363
2011-10-27 07:38:15 51°19.998 2°59.04 12.1425 3.960633 33.891128 -3.020363
2011-10-27 07:38:20 51°20.004 2°59.061 12.1378 3.959286 33.879811 -3.020363
2011-10-27 07:38:25 51°20.01 2°59.082 12.1396 3.957939 33.877746 -3.020363
2011-10-27 07:38:30 51°20.016 2°59.103 12.1421 3.956695 33.872043 -3.020363
2011-10-27 07:38:35 51°20.022 2°59.123 12.1447 3.955452 33.862482 -3.020363
2011-10-27 07:38:40 51°20.028 2°59.144 12.1457 3.955452 33.862482 -3.020363
2011-10-27 07:38:45 51°20.034 2°59.165 12.1442 3.954208 33.850607 -3.020363
2011-10-27 07:38:50 51°20.041 2°59.185 12.1519 3.953068 33.828937 -3.020363
2011-10-27 07:38:55 51°20.047 2°59.205 12.1474 3.951825 33.817067 -3.020363
2011-10-27 07:39:00 51°20.054 2°59.226 12.1547 3.950581 33.808276 -3.020363
2011-10-27 07:39:05 51°20.06 2°59.246 12.1497 3.949442 33.798165 -3.020363
2011-10-27 07:39:10 51°20.066 2°59.267 12.1585 3.949442 33.798165 -3.020363
2011-10-27 07:39:15 51°20.072 2°59.287 12.1545 3.948198 33.785527 -3.020363
2011-10-27 07:39:20 51°20.078 2°59.307 12.1645 3.946955 33.769046 -3.020363
2011-10-27 07:39:25 51°20.084 2°59.328 12.1582 3.945815 33.751254 -3.020363
2011-10-27 07:39:30 51°20.09 2°59.348 12.163 3.944778 33.735227 -3.020363
2011-10-27 07:39:35 51°20.096 2°59.368 12.1639 3.943639 33.741245 -3.020363
2011-10-27 07:39:40 51°20.102 2°59.388 12.1644 3.943639 33.741245 -3.020363
2011-10-27 07:39:45 51°20.108 2°59.409 12.1815 3.942603 33.743648 -3.020363
2011-10-27 07:39:50 51°20.114 2°59.43 12.1795 3.941463 33.733536 -3.020363
2011-10-27 07:39:55 51°20.119 2°59.451 12.1704 3.940634 33.725623 -3.020363
2011-10-27 07:40:00 51°20.125 2°59.471 12.1806 3.939494 33.716279 -3.020363
2011-10-27 07:40:05 51°20.131 2°59.492 12.1913 3.938354 33.708471 -3.020363
2011-10-27 07:40:10 51°20.136 2°59.513 12.1843 3.938354 33.708471 -3.020363
2011-10-27 07:40:15 51°20.141 2°59.533 12.1883 3.937422 33.701104 -3.020363
2011-10-27 07:40:20 51°20.146 2°59.555 12.184 3.936282 33.693294 -3.020363
2011-10-27 07:40:25 51°20.151 2°59.576 12.182 3.935246 33.701062 -3.020363
2011-10-27 07:40:29 51°20.155 2°59.592 12.186 3.934002 33.686115 -3.020363
2011-10-27 07:40:35 51°20.161 2°59.618 12.1871 3.93307 33.673372 -3.020363
2011-10-27 07:40:40 51°20.165 2°59.639 12.185 3.93307 33.673372 -3.020363
2011-10-27 07:40:45 51°20.17 2°59.66 12.189 3.931826 33.666871 -3.020363
2011-10-27 07:40:50 51°20.175 2°59.681 12.1883 3.93079 33.647773 -3.020363
2011-10-27 07:40:55 51°20.179 2°59.703 12.1953 3.929443 33.628784 -3.020363
2011-10-27 07:41:00 51°20.183 2°59.724 12.1964 3.928303 33.633232 -3.020363
2011-10-27 07:41:05 51°20.188 2°59.745 12.193 3.927164 33.62005 -3.020363
2011-10-27 07:41:10 51°20.193 2°59.766 12.1956 3.927164 33.62005 -3.020363
2011-10-27 07:41:15 51°20.198 2°59.787 12.1963 3.926128 33.626254 -3.020363
2011-10-27 07:41:20 51°20.203 2°59.809 12.1973 3.924988 33.612302 -3.020363
2011-10-27 07:41:25 51°20.208 2°59.829 12.2024 3.923537 33.593854 -3.020363
2011-10-27 07:41:29 51°20.213 2°59.846 12.197 3.92219 33.577931 -3.020363
2011-10-27 07:41:35 51°20.22 2°59.87 12.205 3.92105 33.573174 -3.020363
2011-10-27 07:41:40 51°20.226 2°59.89 12.2118 3.92105 33.573174 -3.020363
2011-10-27 07:41:45 51°20.233 2°59.91 12.2085 3.91991 33.558466 -3.020363
2011-10-27 07:41:50 51°20.239 2°59.93 12.2085 3.918874 33.553165 -3.020363
2011-10-27 07:41:55 51°20.246 2°59.949 12.2139 3.917942 33.545792 -3.020363
2011-10-27 07:42:00 51°20.252 2°59.97 12.2312 3.916802 33.526502 -3.020363
2011-10-27 07:42:05 51°20.259 2°59.989 12.2133 3.915558 33.515399 -3.020363
2011-10-27 07:42:10 51°20.265 3°0.009 12.2202 3.915558 33.515399 -3.020363
2011-10-27 07:42:15 51°20.271 3°0.03 12.2075 3.914419 33.509105 -3.020363
2011-10-27 07:42:20 51°20.277 3°0.05 12.2213 3.913072 33.486324 -3.020363
2011-10-27 07:42:25 51°20.283 3°0.071 12.2155 3.911725 33.478051 -3.020363
2011-10-27 07:42:30 51°20.288 3°0.092 12.2206 3.910585 33.474043 -3.020363
2011-10-27 07:42:35 51°20.293 3°0.113 12.217 3.909342 33.456838 -3.020363
2011-10-27 07:42:40 51°20.298 3°0.134 12.2198 3.909342 33.456838 -3.020363
2011-10-27 07:42:45 51°20.303 3°0.156 12.2116 3.907995 33.446273 -3.020363
2011-10-27 07:42:50 51°20.307 3°0.177 12.212 3.906648 33.432659 -3.020363
2011-10-27 07:42:55 51°20.312 3°0.199 12.2146 3.905301 33.422856 -3.020363
2011-10-27 07:43:00 51°20.316 3°0.221 12.2065 3.904057 33.415564 -3.020363
2011-10-27 07:43:05 51°20.32 3°0.242 12.2068 3.902814 33.399131 -3.020363
2011-10-27 07:43:10 51°20.324 3°0.264 12.2029 3.902814 33.399131 -3.020363
2011-10-27 07:43:15 51°20.329 3°0.285 12.2033 3.90157 33.382703 -3.020363
2011-10-27 07:43:20 51°20.333 3°0.306 12.214 3.900327 33.379975 -3.020363
2011-10-27 07:43:25 51°20.338 3°0.328 12.2172 3.89898 33.37169 -3.020363
2011-10-27 07:43:30 51°20.343 3°0.349 12.2137 3.897633 33.359599 -3.020363
2011-10-27 07:43:35 51°20.347 3°0.37 12.2068 3.896494 33.348726 -3.020363
2011-10-27 07:43:40 51°20.352 3°0.391 12.2106 3.896494 33.348726 -3.020363
2011-10-27 07:43:45 51°20.357 3°0.413 12.2283 3.895458 33.341122 -3.020363
2011-10-27 07:43:50 51°20.361 3°0.435 12.2028 3.894007 33.321203 -3.020363
2011-10-27 07:43:55 51°20.366 3°0.456 12.1991 3.89266 33.302281 -3.020363
2011-10-27 07:44:00 51°20.371 3°0.477 12.2049 3.891209 33.282379 -3.020363
2011-10-27 07:44:05 51°20.376 3°0.497 12.2183 3.890173 33.26871 -3.020363
2011-10-27 07:44:10 51°20.381 3°0.519 12.21 3.890173 33.26871 -3.020363
2011-10-27 07:44:15 51°20.386 3°0.54 12.2058 3.889241 33.262096 -3.020363
2011-10-27 07:44:20 51°20.392 3°0.56 12.2078 3.887894 33.246983 -3.020363
2011-10-27 07:44:25 51°20.397 3°0.582 12.2058 3.886754 33.242181 -3.020363
2011-10-27 07:44:30 51°20.401 3°0.603 12.2122 3.885614 33.231317 -3.020363
2011-10-27 07:44:35 51°20.406 3°0.624 12.2096 3.884578 33.221441 -3.020363
2011-10-27 07:44:40 51°20.412 3°0.645 12.2093 3.884578 33.221441 -3.020363
2011-10-27 07:44:45 51°20.417 3°0.666 12.2188 3.883438 33.206037 -3.020363
2011-10-27 07:44:49 51°20.421 3°0.682 12.2078 3.882506 33.194125 -3.020363
2011-10-27 07:44:55 51°20.427 3°0.708 12.2112 3.881573 33.184483 -3.020363
2011-10-27 07:45:00 51°20.433 3°0.728 12.2153 3.880744 33.168273 -3.020363
2011-10-27 07:45:05 51°20.438 3°0.749 12.215 3.879916 33.161888 -3.020363
2011-10-27 07:45:10 51°20.444 3°0.769 12.2186 3.879916 33.161888 -3.020363
2011-10-27 07:45:15 51°20.449 3°0.79 12.2121 3.878983 33.159049 -3.020363
2011-10-27 07:45:20 51°20.454 3°0.812 12.2192 3.878051 33.152432 -3.020363
2011-10-27 07:45:25 51°20.46 3°0.832 12.2147 3.877118 33.144304 -3.020363
2011-10-27 07:45:30 51°20.466 3°0.852 12.2206 3.876289 33.132633 -3.020363
2011-10-27 07:45:35 51°20.471 3°0.873 12.2311 3.875564 33.12497 -3.020363
2011-10-27 07:45:40 51°20.477 3°0.893 12.2322 3.875564 33.12497 -3.020363
2011-10-27 07:45:45 51°20.482 3°0.914 12.2234 3.874632 33.11307 -3.020363
2011-10-27 07:45:50 51°20.488 3°0.934 12.2268 3.873906 33.107672 -3.020363
2011-10-27 07:45:55 51°20.493 3°0.955 12.2232 3.872974 33.098037 -3.020363
2011-10-27 07:46:00 51°20.499 3°0.976 12.2283 3.872145 33.090144 -3.020363
2011-10-27 07:46:05 51°20.504 3°0.996 12.2209 3.87142 33.08776 -3.020363
2011-10-27 07:46:10 51°20.51 3°1.017 12.2225 3.87142 33.08776 -3.020363
2011-10-27 07:46:15 51°20.515 3°1.039 12.226 3.870487 33.075865 -3.020363
2011-10-27 07:46:20 51°20.52 3°1.059 12.2245 3.869555 33.065479 -3.020363
2011-10-27 07:46:25 51°20.526 3°1.08 12.2166 3.868622 33.058107 -3.020363
2011-10-27 07:46:30 51°20.531 3°1.101 12.2166 3.867586 33.05276 -3.020363
2011-10-27 07:46:35 51°20.537 3°1.122 12.216 3.866758 33.047126 -3.020363
2011-10-27 07:46:40 51°20.542 3°1.143 12.2195 3.866758 33.047126 -3.020363
2011-10-27 07:46:45 51°20.547 3°1.164 12.2185 3.866136 33.040453 -3.020363
2011-10-27 07:46:50 51°20.553 3°1.185 12.2247 3.865411 33.032041 -3.020363
2011-10-27 07:46:55 51°20.558 3°1.206 12.2331 3.864478 33.019401 -3.020363
2011-10-27 07:47:00 51°20.563 3°1.228 12.2284 3.863649 33.01151 -3.020363
2011-10-27 07:47:05 51°20.568 3°1.249 12.232 3.862717 33.003385 -3.020363
2011-10-27 07:47:09 51°20.572 3°1.266 12.2303 3.862717 33.003385 -3.020363
2011-10-27 07:47:15 51°20.579 3°1.291 12.2357 3.861991 32.987462 -3.020363
2011-10-27 07:47:20 51°20.584 3°1.312 12.2233 3.861266 32.985068 -3.020363
2011-10-27 07:47:25 51°20.589 3°1.333 12.2307 3.860438 32.980184 -3.020363
2011-10-27 07:47:29 51°20.594 3°1.35 12.2344 3.859609 32.964034 -3.020363
2011-10-27 07:47:35 51°20.6 3°1.375 12.241 3.85878 32.959901 -3.020363
2011-10-27 07:47:40 51°20.605 3°1.397 12.2269 3.85878 32.959901 -3.020363
2011-10-27 07:47:45 51°20.61 3°1.418 12.2356 3.858055 32.960507 -3.020363
2011-10-27 07:47:50 51°20.616 3°1.439 12.2275 3.857019 32.950645 -3.020363
2011-10-27 07:47:55 51°20.622 3°1.46 12.2351 3.856397 32.940976 -3.020363
2011-10-27 07:48:00 51°20.627 3°1.481 12.2349 3.855672 32.931824 -3.020363
2011-10-27 07:48:05 51°20.633 3°1.502 12.2453 3.854739 32.923701 -3.020363
2011-10-27 07:48:10 51°20.639 3°1.523 12.2307 3.854739 32.923701 -3.020363
2011-10-27 07:48:15 51°20.644 3°1.544 12.2307 3.854221 32.912774 -3.020363
2011-10-27 07:48:20 51°20.65 3°1.565 12.2321 3.853703 32.920591 -3.020363
2011-10-27 07:48:25 51°20.655 3°1.586 12.2464 3.852978 32.906192 -3.020363
2011-10-27 07:48:30 51°20.661 3°1.607 12.238 3.85246 32.90801 -3.020363
2011-10-27 07:48:35 51°20.667 3°1.628 12.2361 3.851735 32.904856 -3.020363
2011-10-27 07:48:40 51°20.672 3°1.65 12.2339 3.851735 32.904856 -3.020363
2011-10-27 07:48:45 51°20.678 3°1.671 12.2474 3.851113 32.898191 -3.020363
2011-10-27 07:48:50 51°20.683 3°1.692 12.2487 3.850388 32.888291 -3.020363
2011-10-27 07:48:55 51°20.688 3°1.713 12.2424 3.84987 32.876621 -3.020363
2011-10-27 07:49:00 51°20.693 3°1.734 12.256 3.849248 32.866964 -3.020363
2011-10-27 07:49:05 51°20.698 3°1.756 12.2495 3.848627 32.869286 -3.020363
2011-10-27 07:49:09 51°20.702 3°1.773 12.2519 3.848627 32.869286 -3.020363
2011-10-27 07:49:15 51°20.708 3°1.799 12.2546 3.848005 32.861874 -3.020363
2011-10-27 07:49:20 51°20.712 3°1.821 12.2446 3.84728 32.854227 -3.020363
2011-10-27 07:49:25 51°20.717 3°1.843 12.2452 3.846762 32.842566 -3.020363
2011-10-27 07:49:29 51°20.721 3°1.86 12.2519 3.846037 32.833425 -3.020363
2011-10-27 07:49:35 51°20.726 3°1.886 12.2502 3.845519 32.827751 -3.020363
2011-10-27 07:49:40 51°20.731 3°1.908 12.2561 3.845519 32.827751 -3.020363
2011-10-27 07:49:45 51°20.735 3°1.93 12.2523 3.844897 32.819598 -3.020363
2011-10-27 07:49:50 51°20.741 3°1.951 12.2553 3.844275 32.820413 -3.020363
2011-10-27 07:49:55 51°20.746 3°1.972 12.2589 3.843654 32.815249 -3.020363
2011-10-27 07:50:00 51°20.751 3°1.994 12.2571 3.843136 32.805839 -3.020363
2011-10-27 07:50:05 51°20.756 3°2.016 12.2685 3.842721 32.807129 -3.020363
2011-10-27 07:50:10 51°20.761 3°2.037 12.2656 3.842721 32.807129 -3.020363
2011-10-27 07:50:15 51°20.767 3°2.058 12.2728 3.842203 32.804444 -3.020363
2011-10-27 07:50:20 51°20.772 3°2.079 12.2679 3.841685 32.800264 -3.020363
2011-10-27 07:50:25 51°20.778 3°2.1 12.2675 3.841271 32.794082 -3.020363
2011-10-27 07:50:29 51°20.782 3°2.117 12.2714 3.840857 32.79537 -3.020363
2011-10-27 07:50:35 51°20.788 3°2.143 12.2704 3.840442 32.789188 -3.020363
2011-10-27 07:50:40 51°20.794 3°2.165 12.2765 3.840442 32.789188 -3.020363
2011-10-27 07:50:45 51°20.799 3°2.186 12.2771 3.840131 32.783991 -3.020363
2011-10-27 07:50:50 51°20.805 3°2.207 12.277 3.839717 32.783784 -3.020363
2011-10-27 07:50:55 51°20.81 3°2.229 12.2759 3.839095 32.776379 -3.020363
2011-10-27 07:51:00 51°20.816 3°2.25 12.279 3.838681 32.771692 -3.020363
2011-10-27 07:51:05 51°20.821 3°2.272 12.2852 3.838059 32.763542 -3.020363
2011-10-27 07:51:10 51°20.827 3°2.293 12.3045 3.838059 32.763542 -3.020363
2011-10-27 07:51:15 51°20.833 3°2.314 12.2909 3.837749 32.764318 -3.020363
2011-10-27 07:51:20 51°20.839 3°2.336 12.2905 3.837334 32.760377 -3.020363
2011-10-27 07:51:25 51°20.846 3°2.357 12.2959 3.83692 32.75196 -3.020363
2011-10-27 07:51:30 51°20.851 3°2.378 12.2917 3.836402 32.740324 -3.020363
2011-10-27 07:51:35 51°20.857 3°2.4 12.2943 3.835884 32.738382 -3.020363
2011-10-27 07:51:40 51°20.863 3°2.421 12.3088 3.835884 32.738382 -3.020363
2011-10-27 07:51:45 51°20.869 3°2.442 12.3041 3.835573 32.739901 -3.020363
2011-10-27 07:51:50 51°20.875 3°2.463 12.3028 3.835262 32.736946 -3.020363
2011-10-27 07:51:55 51°20.881 3°2.485 12.3006 3.834848 32.735988 -3.020363
2011-10-27 07:52:00 51°20.887 3°2.506 12.3055 3.834433 32.732048 -3.020363
2011-10-27 07:52:05 51°20.892 3°2.528 12.3037 3.834226 32.728587 -3.020363
2011-10-27 07:52:10 51°20.898 3°2.549 12.3117 3.834226 32.728587 -3.020363
2011-10-27 07:52:15 51°20.904 3°2.571 12.307 3.833812 32.725393 -3.020363
2011-10-27 07:52:20 51°20.908 3°2.593 12.3093 3.833605 32.721187 -3.020363
2011-10-27 07:52:25 51°20.914 3°2.615 12.3117 3.833397 32.717727 -3.020363
2011-10-27 07:52:30 51°20.919 3°2.637 12.3168 3.833087 32.716262 -3.020363
2011-10-27 07:52:35 51°20.924 3°2.659 12.3179 3.832776 32.711818 -3.020363
2011-10-27 07:52:40 51°20.929 3°2.681 12.3163 3.832776 32.711818 -3.020363
2011-10-27 07:52:45 51°20.935 3°2.702 12.3294 3.832569 32.711338 -3.020363
2011-10-27 07:52:50 51°20.94 3°2.724 12.3239 3.832465 32.702905 -3.020363
2011-10-27 07:52:55 51°20.946 3°2.746 12.3272 3.83205 32.695989 -3.020363
2011-10-27 07:53:00 51°20.952 3°2.767 12.3296 3.831636 32.691307 -3.020363
2011-10-27 07:53:05 51°20.958 3°2.788 12.3309 3.831429 32.690082 -3.020363
2011-10-27 07:53:10 51°20.965 3°2.808 12.3307 3.831429 32.690082 -3.020363
2011-10-27 07:53:15 51°20.972 3°2.829 12.3406 3.831118 32.682664 -3.020363
2011-10-27 07:53:20 51°20.978 3°2.85 12.3546 3.831014 32.680936 -3.020363
2011-10-27 07:53:25 51°20.984 3°2.871 12.3481 3.830807 32.677479 -3.020363
2011-10-27 07:53:30 51°20.99 3°2.892 12.3426 3.830496 32.674527 -3.020363
2011-10-27 07:53:35 51°20.996 3°2.914 12.3425 3.830393 32.67503 -3.020363
2011-10-27 07:53:40 51°21.002 3°2.935 12.3417 3.830393 32.67503 -3.020363
2011-10-27 07:53:45 51°21.007 3°2.957 12.3439 3.829978 32.651027 -3.020363
2011-10-27 07:53:49 51°21.012 3°2.974 12.3526 3.829667 32.637683 -3.020363
2011-10-27 07:53:55 51°21.017 3°3.001 12.344 3.82946 32.639427 -3.020363
2011-10-27 07:54:00 51°21.022 3°3.023 12.3469 3.829253 32.656027 -3.020363
2011-10-27 07:54:05 51°21.027 3°3.045 12.3474 3.829046 32.648858 -3.020363
2011-10-27 07:54:09 51°21.031 3°3.062 12.3549 3.829046 32.648858 -3.020363
2011-10-27 07:54:15 51°21.036 3°3.089 12.3522 3.828942 32.647874 -3.020363
2011-10-27 07:54:20 51°21.04 3°3.111 12.35 3.828839 32.639465 -3.020363
2011-10-27 07:54:25 51°21.045 3°3.133 12.3455 3.828631 32.634528 -3.020363
2011-10-27 07:54:29 51°21.048 3°3.151 12.3492 3.828528 32.640226 -3.020363
2011-10-27 07:54:35 51°21.054 3°3.177 12.3563 3.828217 32.640988 -3.020363
2011-10-27 07:54:40 51°21.059 3°3.199 12.3462 3.828217 32.640988 -3.020363
2011-10-27 07:54:45 51°21.064 3°3.222 12.3442 3.828113 32.639261 -3.020363
2011-10-27 07:54:50 51°21.068 3°3.243 12.3498 3.82801 32.640505 -3.020363
2011-10-27 07:54:55 51°21.073 3°3.266 12.3521 3.827803 32.63631 -3.020363
2011-10-27 07:55:00 51°21.077 3°3.288 12.3526 3.827595 32.627662 -3.020363
2011-10-27 07:55:05 51°21.082 3°3.31 12.3465 3.827492 32.62371 -3.020363
2011-10-27 07:55:10 51°21.087 3°3.332 12.3513 3.827492 32.62371 -3.020363
2011-10-27 07:55:15 51°21.092 3°3.354 12.3528 3.827285 32.621744 -3.020363
2011-10-27 07:55:20 51°21.097 3°3.376 12.3501 3.827077 32.617551 -3.020363
2011-10-27 07:55:25 51°21.102 3°3.398 12.3555 3.82687 32.612618 -3.020363
2011-10-27 07:55:30 51°21.108 3°3.42 12.3543 3.826767 32.61386 -3.020363
2011-10-27 07:55:35 51°21.112 3°3.442 12.3607 3.826663 32.615843 -3.020363
2011-10-27 07:55:40 51°21.117 3°3.464 12.3582 3.826663 32.615843 -3.020363
2011-10-27 07:55:45 51°21.122 3°3.486 12.3567 3.826456 32.613876 -3.020363
2011-10-27 07:55:50 51°21.128 3°3.507 12.3557 3.826249 32.609685 -3.020363
2011-10-27 07:55:55 51°21.132 3°3.529 12.3574 3.826041 32.602528 -3.020363
2011-10-27 07:56:00 51°21.138 3°3.551 12.3545 3.825834 32.602786 -3.020363
2011-10-27 07:56:05 51°21.144 3°3.572 12.3556 3.825523 32.602802 -3.020363
2011-10-27 07:56:09 51°21.149 3°3.589 12.3587 3.825523 32.602802 -3.020363
2011-10-27 07:56:15 51°21.156 3°3.614 12.366 3.82542 32.599594 -3.020363
2011-10-27 07:56:20 51°21.162 3°3.635 12.3683 3.825212 32.590958 -3.020363
2011-10-27 07:56:25 51°21.168 3°3.657 12.3555 3.825109 32.586271 -3.020363
2011-10-27 07:56:30 51°21.175 3°3.678 12.3554 3.825005 32.583807 -3.020363
2011-10-27 07:56:35 51°21.181 3°3.699 12.3584 3.824901 32.576901 -3.020363
2011-10-27 07:56:40 51°21.187 3°3.72 12.3609 3.824901 32.576901 -3.020363
2011-10-27 07:56:45 51°21.193 3°3.741 12.3552 3.824798 32.57962 -3.020363
2011-10-27 07:56:50 51°21.198 3°3.762 12.3621 3.824487 32.574451 -3.020363
2011-10-27 07:56:55 51°21.205 3°3.784 12.353 3.824384 32.572728 -3.020363
2011-10-27 07:57:00 51°21.211 3°3.805 12.3584 3.82428 32.576187 -3.020363
2011-10-27 07:57:05 51°21.217 3°3.826 12.3617 3.82428 32.568785 -3.020363
2011-10-27 07:57:09 51°21.222 3°3.843 12.3583 3.82428 32.568785 -3.020363
2011-10-27 07:57:15 51°21.229 3°3.868 12.3647 3.824073 32.56238 -3.020363
2011-10-27 07:57:20 51°21.235 3°3.889 12.36 3.823969 32.559179 -3.020363
2011-10-27 07:57:25 51°21.24 3°3.911 12.3696 3.823865 32.557457 -3.020363
2011-10-27 07:57:29 51°21.245 3°3.927 12.3718 3.823762 32.554256 -3.020363
2011-10-27 07:57:35 51°21.251 3°3.953 12.3653 3.823555 32.560427 -3.020363
2011-10-27 07:57:40 51°21.257 3°3.975 12.3652 3.823555 32.560427 -3.020363
2011-10-27 07:57:45 51°21.261 3°3.996 12.3651 3.823555 32.55451 -3.020363
2011-10-27 07:57:50 51°21.266 3°4.018 12.3575 3.823347 32.553285 -3.020363
2011-10-27 07:57:55 51°21.271 3°4.04 12.3591 3.823037 32.552556 -3.020363
2011-10-27 07:58:00 51°21.276 3°4.061 12.3568 3.82314 32.552799 -3.020363
2011-10-27 07:58:05 51°21.281 3°4.083 12.3653 3.822829 32.543198 -3.020363
2011-10-27 07:58:09 51°21.285 3°4.1 12.356 3.822829 32.543198 -3.020363
2011-10-27 07:58:15 51°21.291 3°4.126 12.3666 3.822726 32.534827 -3.020363
2011-10-27 07:58:20 51°21.296 3°4.148 12.3598 3.822518 32.522524 -3.020363
2011-10-27 07:58:25 51°21.3 3°4.169 12.3604 3.822415 32.53262 -3.020363
2011-10-27 07:58:30 51°21.305 3°4.191 12.3644 3.822311 32.517609 -3.020363
2011-10-27 07:58:35 51°21.31 3°4.213 12.3665 3.822311 32.519823 -3.020363
2011-10-27 07:58:40 51°21.315 3°4.234 12.3619 3.822311 32.519823 -3.020363
2011-10-27 07:58:45 51°21.321 3°4.255 12.3635 3.822104 32.532629 -3.020363
2011-10-27 07:58:50 51°21.326 3°4.276 12.3699 3.822001 32.533864 -3.020363
2011-10-27 07:58:55 51°21.332 3°4.297 12.3677 3.822001 32.534603 -3.020363
2011-10-27 07:59:00 51°21.338 3°4.318 12.3698 3.82169 32.530918 -3.020363
2011-10-27 07:59:05 51°21.344 3°4.339 12.3603 3.82169 32.528701 -3.020363
2011-10-27 07:59:10 51°21.35 3°4.359 12.3603 3.82169 32.528701 -3.020363
2011-10-27 07:59:15 51°21.356 3°4.38 12.3698 3.821586 32.528458 -3.020363
2011-10-27 07:59:20 51°21.362 3°4.401 12.3624 3.821482 32.523783 -3.020363
2011-10-27 07:59:25 51°21.367 3°4.422 12.3676 3.821379 32.522063 -3.020363
2011-10-27 07:59:30 51°21.373 3°4.442 12.3669 3.821275 32.515912 -3.020363
2011-10-27 07:59:35 51°21.379 3°4.463 12.3733 3.821068 32.515426 -3.020363
2011-10-27 07:59:40 51°21.385 3°4.484 12.3734 3.821068 32.515426 -3.020363
2011-10-27 07:59:45 51°21.391 3°4.505 12.3662 3.820965 32.518874 -3.020363
2011-10-27 07:59:50 51°21.397 3°4.526 12.3672 3.820757 32.516172 -3.020363
2011-10-27 07:59:55 51°21.402 3°4.547 12.3657 3.82055 32.51347 -3.020363
2011-10-27 08:00:00 51°21.408 3°4.568 12.3728 3.820343 32.509292 -3.020363